KB0UOA Weather Reports


Display with metric or nautical units.
time (UTC)temp
F
wind
direction
speed
MPH
gust
MPH
rain 1hr
in
rain 24hr
in
rain mn
in
humidity
%
barometer
mb
20260904061505 82 147 3.0 7.0 0.00 0.00 0.00 68 1015.6
20260904061305 82 144 3.0 10.0 0.00 0.00 0.00 68 1015.6
20260904061205 82 144 3.0 10.0 0.00 0.00 0.00 68 1015.5
20260904061105 82 150 3.0 10.0 0.00 0.00 0.00 68 1015.6
20260904060905 82 155 3.0 10.0 0.00 0.00 0.00 68 1015.5
20260904060805 82 153 3.0 10.0 0.00 0.00 0.00 68 1015.6
20260904060604 82 156 3.0 10.0 0.00 0.00 0.00 68 1015.5
20260904060504 82 158 3.0 10.0 0.00 0.00 0.00 68 1015.5
20260904060404 82 159 3.0 9.0 0.00 0.00 0.00 68 1015.6
20260904060304 82 160 3.0 9.0 0.00 0.00 0.00 68 1015.5
20260904060204 82 160 3.0 9.0 0.00 0.00 0.00 68 1015.5
20260904060104 82 159 4.0 9.0 0.00 0.00 0.00 68 1015.5
20260904060004 82 158 4.0 9.0 0.00 0.00 0.00 68 1015.5
20260904055804 82 157 4.0 10.0 0.00 0.00 0.00 68 1015.5
20260904055704 82 158 3.0 10.0 0.00 0.00 0.00 68 1015.5
20260904055604 82 156 3.0 10.0 0.00 0.00 0.00 68 1015.5
20260904055504 82 155 3.0 10.0 0.00 0.00 0.00 68 1015.5
20260904055306 82 153 3.0 10.0 0.00 0.00 0.00 67 1015.4
20260904055204 82 153 3.0 10.0 0.00 0.00 0.00 67 1015.5
20260904055104 82 150 3.0 10.0 0.00 0.00 0.00 67 1015.4
20260904055004 82 150 3.0 10.0 0.00 0.00 0.00 67 1015.4
20260904054904 83 148 3.0 8.0 0.00 0.00 0.00 67 1015.4
20260904054804 82 148 3.0 8.0 0.00 0.00 0.00 67 1015.4
20260904054704 83 148 3.0 8.0 0.00 0.00 0.00 67 1015.4
20260904054604 83 151 3.0 8.0 0.00 0.00 0.00 67 1015.4
20260904054504 83 149 3.0 8.0 0.00 0.00 0.00 67 1015.4
20260904054404 83 152 3.0 8.0 0.00 0.00 0.00 67 1015.4
20260904054304 83 152 3.0 8.0 0.00 0.00 0.00 67 1015.3
20260904054104 83 151 3.0 8.0 0.00 0.00 0.00 67 1015.3
20260904054004 83 149 3.0 6.0 0.00 0.00 0.00 67 1015.3
20260904053904 83 149 3.0 8.0 0.00 0.00 0.00 67 1015.3
20260904053804 83 149 3.0 8.0 0.00 0.00 0.00 67 1015.3
20260904053704 83 148 3.0 8.0 0.00 0.00 0.00 67 1015.3
20260904053604 83 148 3.0 8.0 0.00 0.00 0.00 67 1015.3
20260904053504 83 150 3.0 8.0 0.00 0.00 0.00 66 1015.2
20260904053404 83 147 3.0 8.0 0.00 0.00 0.00 66 1015.3
20260904053304 83 149 4.0 9.0 0.00 0.00 0.00 66 1015.3
20260904053204 83 148 3.0 9.0 0.00 0.00 0.00 66 1015.2
20260904053104 83 149 3.0 9.0 0.00 0.00 0.00 66 1015.3
20260904053004 83 150 3.0 9.0 0.00 0.00 0.00 66 1015.2
20260904052804 83 148 3.0 9.0 0.00 0.00 0.00 66 1015.1
20260904052704 83 151 3.0 9.0 0.00 0.00 0.00 66 1015.2
20260904052604 83 148 3.0 9.0 0.00 0.00 0.00 66 1015.1
20260904052504 83 150 3.0 9.0 0.00 0.00 0.00 66 1015.1
20260904052307 83 152 3.0 9.0 0.00 0.00 0.00 66 1015.1
20260904052104 83 153 3.0 9.0 0.00 0.00 0.00 66 1015.2
20260904052004 83 155 3.0 9.0 0.00 0.00 0.00 66 1015.2
20260904051904 83 155 3.0 9.0 0.00 0.00 0.00 66 1015.2
20260904051804 83 157 3.0 9.0 0.00 0.00 0.00 66 1015.2
20260904051704 83 156 3.0 9.0 0.00 0.00 0.00 66 1015.1
20260904051604 83 158 3.0 9.0 0.00 0.00 0.00 66 1015.1
20260904051504 83 155 3.0 9.0 0.00 0.00 0.00 66 1015.1
20260904051404 83 157 3.0 9.0 0.00 0.00 0.00 66 1015.1
20260904051304 83 156 3.0 8.0 0.00 0.00 0.00 66 1015.1
20260904051204 83 154 3.0 8.0 0.00 0.00 0.00 66 1015.1
20260904051104 83 152 3.0 8.0 0.00 0.00 0.00 66 1015.1
20260904051004 83 151 3.0 8.0 0.00 0.00 0.00 66 1015.1
20260904050904 83 151 3.0 8.0 0.00 0.00 0.00 66 1015.1
20260904050804 83 155 3.0 8.0 0.00 0.00 0.00 66 1015.1
20260904050704 83 153 3.0 8.0 0.00 0.00 0.00 65 1015.1
20260904050604 83 152 3.0 8.0 0.00 0.00 0.00 66 1015.0
20260904050504 83 151 3.0 8.0 0.00 0.00 0.00 66 1015.0
20260904050404 83 149 3.0 8.0 0.00 0.00 0.00 66 1015.0
20260904050304 83 148 3.0 8.0 0.00 0.00 0.00 65 1015.1
20260904050204 83 149 3.0 8.0 0.00 0.00 0.00 65 1015.0
20260904050104 83 151 3.0 8.0 0.00 0.00 0.00 66 1015.0
20260904050006 83 149 3.0 8.0 0.00 0.00 0.00 66 1015.0
20260904045904 83 150 2.0 8.0 0.00 0.00 0.00 65 1015.0
20260904045804 83 143 2.0 7.0 0.00 0.00 0.00 66 1015.0
20260904045704 83 145 2.0 7.0 0.00 0.00 0.00 65 1015.0
20260904045504 83 148 2.0 7.0 0.00 0.00 0.00 66 1015.0
20260904045405 83 151 2.0 7.0 0.00 0.00 0.00 66 1015.0
20260904045307 83 148 2.0 7.0 0.00 0.00 0.00 66 1015.0
20260904045205 83 147 2.0 7.0 0.00 0.00 0.00 66 1015.0
20260904045105 83 147 2.0 7.0 0.00 0.00 0.00 66 1015.0
20260904045005 84 149 2.0 7.0 0.00 0.00 0.00 66 1015.0
20260904044904 84 149 2.0 6.0 0.00 0.00 0.00 66 1015.0
20260904044804 84 148 2.0 6.0 0.00 0.00 0.00 66 1015.0
20260904044704 84 145 2.0 6.0 0.00 0.00 0.00 66 1015.0
20260904044604 84 142 2.0 5.0 0.00 0.00 0.00 65 1015.0
20260904044504 84 141 2.0 5.0 0.00 0.00 0.00 65 1015.0
20260904044404 84 138 2.0 5.0 0.00 0.00 0.00 65 1015.0
20260904044304 84 140 2.0 6.0 0.00 0.00 0.00 65 1015.0
20260904044204 84 143 2.0 6.0 0.00 0.00 0.00 65 1015.0
20260904044105 84 142 2.0 6.0 0.00 0.00 0.00 65 1015.0
20260904043904 84 140 2.0 6.0 0.00 0.00 0.00 65 1015.0
20260904043804 84 143 2.0 6.0 0.00 0.00 0.00 65 1015.0
20260904043704 84 144 2.0 6.0 0.00 0.00 0.00 65 1015.0
20260904043604 84 144 2.0 6.0 0.00 0.00 0.00 65 1015.0
20260904043504 84 144 2.0 6.0 0.00 0.00 0.00 65 1014.9
20260904043404 84 143 2.0 6.0 0.00 0.00 0.00 65 1014.9
20260904043304 84 145 3.0 7.0 0.00 0.00 0.00 65 1014.9
20260904043204 84 143 3.0 7.0 0.00 0.00 0.00 65 1014.9
20260904043104 84 144 3.0 7.0 0.00 0.00 0.00 65 1014.9
20260904042904 84 147 3.0 12.0 0.00 0.00 0.00 65 1014.9
20260904042805 84 145 3.0 12.0 0.00 0.00 0.00 65 1014.9
20260904042705 84 145 3.0 12.0 0.00 0.00 0.00 65 1014.9
20260904042605 84 143 3.0 12.0 0.00 0.00 0.00 65 1015.0
20260904042505 84 147 3.0 12.0 0.00 0.00 0.00 65 1014.9
20260904042405 84 148 3.0 12.0 0.00 0.00 0.00 65 1014.9
20260904042306 84 144 3.0 12.0 0.00 0.00 0.00 65 1014.9
20260904042205 84 144 3.0 12.0 0.00 0.00 0.00 65 1014.9
20260904042105 84 143 3.0 12.0 0.00 0.00 0.00 65 1014.9
20260904042005 84 140 3.0 12.0 0.00 0.00 0.00 65 1014.9
20260904041805 84 140 3.0 8.0 0.00 0.00 0.00 65 1014.9
20260904041705 84 139 2.0 8.0 0.00 0.00 0.00 65 1014.9
20260904041605 84 140 2.0 8.0 0.00 0.00 0.00 65 1014.9
20260904041504 84 136 2.0 8.0 0.00 0.00 0.00 64 1014.9
20260904041404 84 135 2.0 8.0 0.00 0.00 0.00 64 1014.9
20260904041305 84 138 2.0 7.0 0.00 0.00 0.00 64 1014.8
20260904041205 84 138 2.0 7.0 0.00 0.00 0.00 64 1014.8
20260904041104 84 137 2.0 7.0 0.00 0.00 0.00 64 1014.8
20260904041004 84 136 2.0 7.0 0.00 0.00 0.00 64 1014.9
20260904040904 84 137 2.0 7.0 0.00 0.00 0.00 64 1014.8
20260904040804 84 136 2.0 7.0 0.00 0.00 0.00 64 1014.8
20260904040704 84 137 3.0 7.0 0.00 0.00 0.00 64 1014.8
20260904040604 84 137 2.0 7.0 0.00 0.00 0.00 64 1014.8
20260904040504 84 137 2.0 7.0 0.00 0.00 0.00 64 1014.8
20260904040404 85 137 2.0 7.0 0.00 0.00 0.00 64 1014.7
20260904040204 85 134 2.0 6.0 0.00 0.00 0.00 64 1014.8
20260904040105 85 133 2.0 6.0 0.00 0.00 0.00 64 1014.8
20260904040005 85 135 2.0 6.0 0.00 0.00 0.00 64 1014.9
20260904035904 85 134 2.0 6.0 0.00 0.00 0.00 64 1014.9
20260904035804 85 135 2.0 6.0 0.00 0.00 0.00 64 1014.8
20260904035704 85 134 2.0 6.0 0.00 0.00 0.00 64 1014.8
20260904035604 85 135 2.0 6.0 0.00 0.00 0.00 63 1014.9
20260904035504 85 134 3.0 7.0 0.00 0.00 0.00 63 1014.9
20260904035404 85 134 3.0 7.0 0.00 0.00 0.00 63 1014.9
20260904035306 85 134 3.0 7.0 0.00 0.00 0.00 63 1014.8
20260904035204 85 133 3.0 7.0 0.00 0.00 0.00 63 1014.8
20260904035104 85 134 3.0 7.0 0.00 0.00 0.00 63 1014.8
20260904035004 85 136 3.0 7.0 0.00 0.00 0.00 63 1014.8
20260904034904 85 135 3.0 7.0 0.00 0.00 0.00 63 1014.8
20260904034804 85 134 3.0 7.0 0.00 0.00 0.00 63 1014.7
20260904034704 85 135 3.0 7.0 0.00 0.00 0.00 63 1014.8
20260904034604 85 134 3.0 7.0 0.00 0.00 0.00 63 1014.8
20260904034504 85 134 3.0 6.0 0.00 0.00 0.00 63 1014.8
20260904034404 85 135 3.0 6.0 0.00 0.00 0.00 63 1014.8
20260904034304 85 135 3.0 6.0 0.00 0.00 0.00 63 1014.8
20260904034204 85 138 3.0 6.0 0.00 0.00 0.00 63 1014.8
20260904034104 85 140 3.0 8.0 0.00 0.00 0.00 63 1014.8
20260904034004 85 137 3.0 8.0 0.00 0.00 0.00 63 1014.8
20260904033904 85 137 3.0 8.0 0.00 0.00 0.00 62 1014.8
20260904033804 86 139 3.0 8.0 0.00 0.00 0.00 62 1014.7
20260904033705 86 137 3.0 8.0 0.00 0.00 0.00 62 1014.8
20260904033505 86 140 4.0 10.0 0.00 0.00 0.00 62 1014.7
20260904033405 86 138 4.0 10.0 0.00 0.00 0.00 62 1014.7
20260904033305 86 140 4.0 10.0 0.00 0.00 0.00 62 1014.7
20260904033205 86 137 4.0 10.0 0.00 0.00 0.00 62 1014.7
20260904033104 86 135 4.0 10.0 0.00 0.00 0.00 62 1014.8
20260904033004 86 138 4.0 10.0 0.00 0.00 0.00 62 1014.7
20260904032904 86 138 4.0 10.0 0.00 0.00 0.00 62 1014.7
20260904032804 86 137 4.0 10.0 0.00 0.00 0.00 62 1014.7
20260904032704 86 138 4.0 10.0 0.00 0.00 0.00 62 1014.7
20260904032604 86 138 4.0 10.0 0.00 0.00 0.00 62 1014.6
20260904032504 86 135 4.0 9.0 0.00 0.00 0.00 62 1014.7
20260904032404 86 139 3.0 11.0 0.00 0.00 0.00 61 1014.7
20260904032306 86 138 3.0 11.0 0.00 0.00 0.00 61 1014.7
20260904032205 86 137 3.0 11.0 0.00 0.00 0.00 61 1014.7
20260904032104 86 138 3.0 11.0 0.00 0.00 0.00 61 1014.6
20260904032004 86 133 3.0 11.0 0.00 0.00 0.00 61 1014.6
20260904031904 86 133 3.0 11.0 0.00 0.00 0.00 61 1014.6
20260904031804 86 135 3.0 11.0 0.00 0.00 0.00 61 1014.6
20260904031704 86 136 4.0 11.0 0.00 0.00 0.00 61 1014.6
20260904031604 86 136 4.0 11.0 0.00 0.00 0.00 61 1014.6
20260904031504 86 135 3.0 11.0 0.00 0.00 0.00 61 1014.5
20260904031404 86 132 4.0 10.0 0.00 0.00 0.00 61 1014.5
20260904031304 86 132 4.0 10.0 0.00 0.00 0.00 61 1014.5
20260904031204 87 133 4.0 10.0 0.00 0.00 0.00 61 1014.4
20260904031105 87 134 4.0 10.0 0.00 0.00 0.00 61 1014.5
20260904031005 87 135 4.0 10.0 0.00 0.00 0.00 60 1014.4
20260904030805 87 134 4.0 10.0 0.00 0.00 0.00 60 1014.4
20260904030605 87 135 4.0 10.0 0.00 0.00 0.00 60 1014.3
20260904030505 87 135 4.0 10.0 0.00 0.00 0.00 60 1014.3
20260904030405 87 135 4.0 9.0 0.00 0.00 0.00 60 1014.3
20260904030305 87 133 4.0 9.0 0.00 0.00 0.00 60 1014.3
20260904030105 87 132 4.0 9.0 0.00 0.00 0.00 60 1014.3
20260904030005 87 133 4.0 9.0 0.00 0.00 0.00 60 1014.3
20260904025905 87 132 3.0 9.0 0.00 0.00 0.00 60 1014.3
20260904025805 87 131 3.0 8.0 0.00 0.00 0.00 60 1014.3
20260904025705 87 129 3.0 8.0 0.00 0.00 0.00 59 1014.4
20260904025605 87 131 3.0 8.0 0.00 0.00 0.00 59 1014.3
20260904025504 87 132 3.0 8.0 0.00 0.00 0.00 59 1014.4
20260904025306 87 136 3.0 8.0 0.00 0.00 0.00 59 1014.3
20260904025204 87 137 3.0 8.0 0.00 0.00 0.00 59 1014.3
20260904025104 87 136 3.0 8.0 0.00 0.00 0.00 59 1014.3
20260904025005 87 138 3.0 8.0 0.00 0.00 0.00 59 1014.3
20260904024805 87 139 3.0 9.0 0.00 0.00 0.00 59 1014.2
20260904024705 87 140 3.0 9.0 0.00 0.00 0.00 59 1014.2
20260904024505 88 138 3.0 9.0 0.00 0.00 0.00 59 1014.2
20260904024404 88 135 3.0 9.0 0.00 0.00 0.00 59 1014.3
20260904024204 88 135 3.0 9.0 0.00 0.00 0.00 58 1014.2
20260904024104 88 137 3.0 9.0 0.00 0.00 0.00 58 1014.2
20260904024004 88 135 3.0 9.0 0.00 0.00 0.00 58 1014.2
20260904023904 88 135 3.0 9.0 0.00 0.00 0.00 58 1014.1
20260904023704 88 134 3.0 9.0 0.00 0.00 0.00 58 1014.1
20260904023604 88 133 4.0 9.0 0.00 0.00 0.00 58 1014.0
20260904023504 88 135 4.0 9.0 0.00 0.00 0.00 58 1014.0
20260904023404 88 135 4.0 9.0 0.00 0.00 0.00 58 1014.0
20260904023304 88 136 4.0 9.0 0.00 0.00 0.00 58 1014.0
20260904023204 88 137 4.0 9.0 0.00 0.00 0.00 58 1014.0
20260904023105 88 137 4.0 9.0 0.00 0.00 0.00 58 1014.0
20260904023005 88 135 4.0 9.0 0.00 0.00 0.00 57 1014.0
20260904022905 88 135 4.0 9.0 0.00 0.00 0.00 57 1013.9
20260904022804 88 138 4.0 9.0 0.00 0.00 0.00 57 1014.0
20260904022704 88 138 4.0 9.0 0.00 0.00 0.00 57 1013.9
20260904022604 88 138 4.0 9.0 0.00 0.00 0.00 57 1014.0
20260904022504 88 135 4.0 9.0 0.00 0.00 0.00 57 1013.9
20260904022405 88 135 4.0 9.0 0.00 0.00 0.00 57 1013.9
20260904022306 88 133 4.0 9.0 0.00 0.00 0.00 57 1013.9
20260904022204 88 132 3.0 9.0 0.00 0.00 0.00 57 1013.9
20260904022104 88 131 3.0 9.0 0.00 0.00 0.00 57 1013.8
20260904022004 88 133 3.0 9.0 0.00 0.00 0.00 57 1013.9
20260904021904 88 133 3.0 9.0 0.00 0.00 0.00 57 1013.9
20260904021804 88 130 3.0 8.0 0.00 0.00 0.00 57 1013.9
20260904021604 89 131 3.0 9.0 0.00 0.00 0.00 56 1013.9
20260904021504 89 133 3.0 9.0 0.00 0.00 0.00 56 1013.9
20260904021404 89 136 3.0 9.0 0.00 0.00 0.00 56 1013.9
20260904021304 89 137 3.0 9.0 0.00 0.00 0.00 56 1013.9
20260904021204 89 139 4.0 9.0 0.00 0.00 0.00 56 1013.9
20260904021104 89 137 4.0 10.0 0.00 0.00 0.00 56 1013.9
20260904020904 89 137 4.0 10.0 0.00 0.00 0.00 55 1013.8
20260904020805 89 138 4.0 10.0 0.00 0.00 0.00 55 1013.8
20260904020705 89 137 4.0 10.0 0.00 0.00 0.00 55 1013.8
20260904020604 89 138 4.0 10.0 0.00 0.00 0.00 55 1013.8
20260904020504 89 138 3.0 10.0 0.00 0.00 0.00 55 1013.8
20260904020405 89 137 4.0 10.0 0.00 0.00 0.00 54 1013.7
20260904020304 89 137 3.0 10.0 0.00 0.00 0.00 54 1013.7
20260904020204 89 137 3.0 10.0 0.00 0.00 0.00 54 1013.8
20260904020104 89 138 3.0 10.0 0.00 0.00 0.00 54 1013.8
20260904020004 89 137 3.0 10.0 0.00 0.00 0.00 54 1013.8
20260904015904 89 137 3.0 10.0 0.00 0.00 0.00 53 1013.8
20260904015804 89 138 3.0 9.0 0.00 0.00 0.00 53 1013.7
20260904015704 89 137 3.0 9.0 0.00 0.00 0.00 53 1013.7
20260904015504 89 136 3.0 9.0 0.00 0.00 0.00 52 1013.7
20260904015306 90 136 2.0 9.0 0.00 0.00 0.00 52 1013.7
20260904015004 90 133 2.0 7.0 0.00 0.00 0.00 52 1013.6
20260904014905 90 132 2.0 7.0 0.00 0.00 0.00 52 1013.6
20260904014805 90 129 2.0 4.0 0.00 0.00 0.00 51 1013.6
20260904014705 90 130 2.0 4.0 0.00 0.00 0.00 51 1013.6
20260904014605 90 129 2.0 4.0 0.00 0.00 0.00 51 1013.6
20260904014505 90 132 2.0 4.0 0.00 0.00 0.00 51 1013.5
20260904014405 90 132 2.0 4.0 0.00 0.00 0.00 51 1013.5
20260904014305 90 130 2.0 4.0 0.00 0.00 0.00 51 1013.5
20260904014205 90 130 2.0 4.0 0.00 0.00 0.00 50 1013.4
20260904014105 90 131 2.0 4.0 0.00 0.00 0.00 50 1013.4
20260904014005 90 132 2.0 4.0 0.00 0.00 0.00 50 1013.4
20260904013904 90 131 2.0 4.0 0.00 0.00 0.00 50 1013.4
20260904013805 90 130 2.0 4.0 0.00 0.00 0.00 50 1013.4
20260904013705 90 130 2.0 4.0 0.00 0.00 0.00 50 1013.4
20260904013604 90 129 2.0 4.0 0.00 0.00 0.00 50 1013.3
20260904013504 90 125 2.0 4.0 0.00 0.00 0.00 50 1013.4
20260904013404 90 124 2.0 4.0 0.00 0.00 0.00 49 1013.3
20260904013304 90 124 2.0 4.0 0.00 0.00 0.00 49 1013.2
20260904013205 90 124 2.0 4.0 0.00 0.00 0.00 49 1013.3
20260904013105 90 123 2.0 4.0 0.00 0.00 0.00 49 1013.3
20260904012905 91 124 2.0 4.0 0.00 0.00 0.00 49 1013.2
20260904012804 91 124 2.0 4.0 0.00 0.00 0.00 49 1013.2
20260904012705 91 124 2.0 4.0 0.00 0.00 0.00 49 1013.2
20260904012604 91 124 2.0 4.0 0.00 0.00 0.00 48 1013.2
20260904012504 91 124 2.0 8.0 0.00 0.00 0.00 48 1013.2
20260904012306 91 129 2.0 8.0 0.00 0.00 0.00 48 1013.1
20260904012205 91 129 2.0 8.0 0.00 0.00 0.00 48 1013.1
20260904012104 91 131 2.0 8.0 0.00 0.00 0.00 48 1013.1
20260904012004 91 131 2.0 8.0 0.00 0.00 0.00 48 1013.1
20260904011904 91 130 2.0 8.0 0.00 0.00 0.00 48 1013.1
20260904011804 91 130 2.0 8.0 0.00 0.00 0.00 48 1013.1
20260904011704 91 130 2.0 8.0 0.00 0.00 0.00 47 1013.0
20260904011604 91 131 2.0 8.0 0.00 0.00 0.00 47 1013.1
20260904011504 91 133 2.0 6.0 0.00 0.00 0.00 47 1013.1
20260904011404 92 133 2.0 6.0 0.00 0.00 0.00 47 1013.0
20260904011304 92 129 2.0 6.0 0.00 0.00 0.00 47 1013.0
20260904011204 92 128 2.0 8.0 0.00 0.00 0.00 47 1013.0
20260904011004 92 128 2.0 8.0 0.00 0.00 0.00 47 1013.0
20260904010904 92 132 2.0 8.0 0.00 0.00 0.00 47 1013.0
20260904010804 92 132 2.0 8.0 0.00 0.00 0.00 47 1013.0
20260904010704 92 133 2.0 8.0 0.00 0.00 0.00 47 1013.0
20260904010604 92 133 2.0 8.0 0.00 0.00 0.00 46 1013.0
20260904010504 92 135 2.0 8.0 0.00 0.00 0.00 46 1013.0
20260904010404 92 135 3.0 8.0 0.00 0.00 0.00 46 1013.0
20260904010304 92 134 2.0 8.0 0.00 0.00 0.00 46 1013.0
20260904010204 92 137 2.0 6.0 0.00 0.00 0.00 46 1013.0
20260904010104 92 136 2.0 6.0 0.00 0.00 0.00 46 1013.0
20260904010005 92 135 2.0 6.0 0.00 0.00 0.00 46 1013.0
20260904005905 92 135 3.0 6.0 0.00 0.00 0.00 46 1013.0
20260904005805 92 138 2.0 6.0 0.00 0.00 0.00 46 1012.9
20260904005704 92 136 3.0 6.0 0.00 0.00 0.00 46 1013.0
20260904005605 92 137 3.0 6.0 0.00 0.00 0.00 46 1013.0
20260904005505 93 136 3.0 7.0 0.00 0.00 0.00 45 1012.9
20260904005405 93 138 3.0 7.0 0.00 0.00 0.00 45 1012.9
20260904005306 93 140 3.0 7.0 0.00 0.00 0.00 45 1013.0
20260904005105 93 141 3.0 7.0 0.00 0.00 0.00 45 1012.8
20260904005005 93 142 3.0 7.0 0.00 0.00 0.00 45 1012.9
20260904004905 93 139 3.0 7.0 0.00 0.00 0.00 45 1012.9
20260904004804 93 137 3.0 7.0 0.00 0.00 0.00 45 1012.8
20260904004705 93 137 3.0 7.0 0.00 0.00 0.00 45 1012.8
20260904004604 93 137 3.0 7.0 0.00 0.00 0.00 45 1012.9
20260904004505 93 137 3.0 7.0 0.00 0.00 0.00 45 1012.8
20260904004415 93 135 3.0 7.0 0.00 0.00 0.00 45 1012.8
20260904004204 93 133 3.0 7.0 0.00 0.00 0.00 45 1012.8
20260904004104 93 134 3.0 7.0 0.00 0.00 0.00 44 1012.8
20260904004004 94 133 3.0 7.0 0.00 0.00 0.00 44 1012.7
20260904003904 94 136 3.0 11.0 0.00 0.00 0.00 44 1012.8
20260904003804 94 137 3.0 11.0 0.00 0.00 0.00 44 1012.7
20260904003704 94 139 3.0 11.0 0.00 0.00 0.00 44 1012.7
20260904003604 94 139 3.0 11.0 0.00 0.00 0.00 44 1012.7
20260904003405 94 140 3.0 11.0 0.00 0.00 0.00 44 1012.6
20260904003205 94 147 3.0 11.0 0.00 0.00 0.00 44 1012.6
20260904003105 94 146 4.0 11.0 0.00 0.00 0.00 44 1012.6
20260904003005 94 149 4.0 11.0 0.00 0.00 0.00 44 1012.6
20260904002904 94 153 4.0 9.0 0.00 0.00 0.00 44 1012.6
20260904002804 94 155 4.0 9.0 0.00 0.00 0.00 43 1012.6
20260904002704 94 156 4.0 9.0 0.00 0.00 0.00 43 1012.6
20260904002504 94 157 3.0 9.0 0.00 0.00 0.00 43 1012.5
20260904002404 94 158 3.0 9.0 0.00 0.00 0.00 43 1012.6
20260904002306 94 159 3.0 9.0 0.00 0.00 0.00 43 1012.6
20260904001904 95 148 2.0 6.0 0.00 0.00 0.00 43 1012.6
20260904001804 95 145 2.0 5.0 0.00 0.00 0.00 43 1012.6
20260904001704 95 145 2.0 5.0 0.00 0.00 0.00 43 1012.6
20260904001604 95 144 2.0 5.0 0.00 0.00 0.00 43 1012.6
20260904001404 95 149 2.0 8.0 0.00 0.00 0.00 43 1012.6
20260904001304 95 148 2.0 8.0 0.00 0.00 0.00 42 1012.6
20260904001204 95 146 2.0 8.0 0.00 0.00 0.00 43 1012.6
20260904001104 95 144 3.0 8.0 0.00 0.00 0.00 42 1012.5
20260904000904 95 145 3.0 8.0 0.00 0.00 0.00 42 1012.6
20260904000804 95 146 3.0 10.0 0.00 0.00 0.00 42 1012.6
20260904000704 96 147 3.0 10.0 0.00 0.00 0.00 42 1012.6
20260904000604 95 148 3.0 10.0 0.00 0.00 0.00 42 1012.6
20260904000504 96 144 3.0 10.0 0.00 0.00 0.00 42 1012.6
20260904000304 96 144 3.0 10.0 0.00 0.00 0.00 41 1012.6
20260904000004 96 149 3.0 11.0 0.00 0.00 0.00 41 1012.6
20260903235904 96 148 3.0 11.0 0.00 0.00 0.00 41 1012.6
20260903235805 96 146 3.0 11.0 0.00 0.00 0.00 41 1012.6
20260903235705 96 142 3.0 11.0 0.00 0.00 0.00 41 1012.5
20260903235305 96 144 3.0 11.0 0.00 0.00 0.00 40 1012.5
20260903235205 96 144 3.0 11.0 0.00 0.00 0.00 40 1012.5
20260903235105 96 147 3.0 11.0 0.00 0.00 0.00 40 1012.5
20260903235005 96 146 4.0 11.0 0.00 0.00 0.00 40 1012.5
20260903234905 96 153 4.0 11.0 0.00 0.00 0.00 40 1012.5
20260903234805 96 154 4.0 11.0 0.00 0.00 0.00 40 1012.5
20260903234705 96 157 4.0 11.0 0.00 0.00 0.00 40 1012.5
20260903234605 96 161 4.0 11.0 0.00 0.00 0.00 40 1012.5
20260903234404 96 157 4.0 10.0 0.00 0.00 0.00 40 1012.5
20260903234005 97 150 4.0 10.0 0.00 0.00 0.00 39 1012.4
20260903233904 97 145 4.0 11.0 0.00 0.00 0.00 39 1012.5
20260903233805 97 144 4.0 11.0 0.00 0.00 0.00 39 1012.5
20260903233704 97 146 4.0 11.0 0.00 0.00 0.00 39 1012.5
20260903233604 97 145 4.0 11.0 0.00 0.00 0.00 39 1012.5
20260903233504 97 145 4.0 11.0 0.00 0.00 0.00 39 1012.5
20260903233305 97 143 4.0 11.0 0.00 0.00 0.00 39 1012.5
20260903233205 97 147 4.0 11.0 0.00 0.00 0.00 39 1012.5
20260903233104 97 146 4.0 11.0 0.00 0.00 0.00 39 1012.5
20260903233005 97 145 4.0 11.0 0.00 0.00 0.00 39 1012.6
20260903232904 97 145 4.0 8.0 0.00 0.00 0.00 39 1012.5
20260903232804 97 147 4.0 10.0 0.00 0.00 0.00 39 1012.5
20260903232704 97 146 4.0 10.0 0.00 0.00 0.00 39 1012.6
20260903232604 97 142 4.0 10.0 0.00 0.00 0.00 39 1012.5
20260903232404 97 145 4.0 10.0 0.00 0.00 0.00 39 1012.4
20260903232306 97 144 4.0 10.0 0.00 0.00 0.00 39 1012.5
20260903232104 98 141 4.0 10.0 0.00 0.00 0.00 39 1012.5
20260903232004 98 140 4.0 10.0 0.00 0.00 0.00 39 1012.5
20260903231904 98 145 4.0 10.0 0.00 0.00 0.00 39 1012.4
20260903231804 98 141 4.0 10.0 0.00 0.00 0.00 39 1012.4
20260903231604 98 144 4.0 9.0 0.00 0.00 0.00 39 1012.5
20260903231504 98 142 3.0 9.0 0.00 0.00 0.00 38 1012.5
20260903231304 98 146 3.0 9.0 0.00 0.00 0.00 38 1012.5
20260903231204 98 147 3.0 9.0 0.00 0.00 0.00 38 1012.5
20260903231104 98 152 3.0 9.0 0.00 0.00 0.00 38 1012.5
20260903231004 98 157 3.0 9.0 0.00 0.00 0.00 39 1012.6
20260903230704 98 153 3.0 9.0 0.00 0.00 0.00 39 1012.5
20260903230604 98 154 3.0 9.0 0.00 0.00 0.00 39 1012.5
20260903230504 98 153 3.0 9.0 0.00 0.00 0.00 39 1012.6
20260903230404 98 149 4.0 9.0 0.00 0.00 0.00 39 1012.5
20260903230304 98 150 4.0 9.0 0.00 0.00 0.00 38 1012.5
20260903230204 98 151 4.0 9.0 0.00 0.00 0.00 38 1012.4
20260903230104 98 147 4.0 9.0 0.00 0.00 0.00 38 1012.5
20260903230004 98 146 3.0 9.0 0.00 0.00 0.00 38 1012.4
20260903225904 98 142 3.0 9.0 0.00 0.00 0.00 38 1012.4
20260903225804 98 147 4.0 11.0 0.00 0.00 0.00 38 1012.4
20260903225704 98 149 4.0 11.0 0.00 0.00 0.00 38 1012.4
20260903225604 98 154 4.0 11.0 0.00 0.00 0.00 38 1012.4
20260903225504 98 154 4.0 11.0 0.00 0.00 0.00 38 1012.4
20260903225306 98 158 4.0 11.0 0.00 0.00 0.00 38 1012.4
20260903225204 98 157 4.0 11.0 0.00 0.00 0.00 38 1012.4
20260903225104 98 160 4.0 11.0 0.00 0.00 0.00 38 1012.3
20260903225004 98 160 4.0 11.0 0.00 0.00 0.00 38 1012.3
20260903224904 98 159 4.0 11.0 0.00 0.00 0.00 37 1012.4
20260903224804 98 160 4.0 13.0 0.00 0.00 0.00 37 1012.3
20260903224704 98 159 4.0 13.0 0.00 0.00 0.00 37 1012.3
20260903224604 98 154 4.0 13.0 0.00 0.00 0.00 37 1012.3
20260903224504 98 155 4.0 13.0 0.00 0.00 0.00 37 1012.2
20260903224404 98 154 4.0 13.0 0.00 0.00 0.00 36 1012.3
20260903224304 98 153 4.0 13.0 0.00 0.00 0.00 36 1012.3
20260903224204 98 151 4.0 13.0 0.00 0.00 0.00 37 1012.3
20260903224104 99 146 4.0 13.0 0.00 0.00 0.00 37 1012.3
20260903224004 99 143 4.0 13.0 0.00 0.00 0.00 37 1012.3
20260903223904 99 141 4.0 13.0 0.00 0.00 0.00 37 1012.3
20260903223704 99 136 4.0 9.0 0.00 0.00 0.00 37 1012.3
20260903223604 99 134 4.0 8.0 0.00 0.00 0.00 37 1012.2
20260903223404 98 129 4.0 7.0 0.00 0.00 0.00 37 1012.2
20260903223304 98 128 4.0 7.0 0.00 0.00 0.00 37 1012.2
20260903223204 98 129 4.0 7.0 0.00 0.00 0.00 36 1012.2
20260903223104 98 133 4.0 7.0 0.00 0.00 0.00 36 1012.3
20260903223004 99 134 4.0 11.0 0.00 0.00 0.00 37 1012.3
20260903222904 99 134 4.0 11.0 0.00 0.00 0.00 36 1012.3
20260903222704 99 133 4.0 11.0 0.00 0.00 0.00 36 1012.2
20260903222605 99 131 4.0 11.0 0.00 0.00 0.00 36 1012.2
20260903222505 99 132 4.0 11.0 0.00 0.00 0.00 36 1012.3
20260903222404 99 131 5.0 11.0 0.00 0.00 0.00 36 1012.3
20260903222305 98 131 5.0 11.0 0.00 0.00 0.00 36 1012.3
20260903222205 98 131 4.0 11.0 0.00 0.00 0.00 36 1012.3
20260903222005 99 137 5.0 11.0 0.00 0.00 0.00 37 1012.3
20260903221905 99 143 5.0 11.0 0.00 0.00 0.00 37 1012.2
20260903221805 99 145 5.0 12.0 0.00 0.00 0.00 36 1012.2
20260903221705 99 149 5.0 12.0 0.00 0.00 0.00 36 1012.3
20260903221504 99 159 5.0 12.0 0.00 0.00 0.00 36 1012.3
20260903221304 99 163 5.0 12.0 0.00 0.00 0.00 37 1012.3
20260903221204 99 164 5.0 12.0 0.00 0.00 0.00 36 1012.3
20260903221104 99 161 5.0 12.0 0.00 0.00 0.00 37 1012.3
20260903221004 99 153 4.0 12.0 0.00 0.00 0.00 37 1012.3
20260903220904 99 148 4.0 12.0 0.00 0.00 0.00 37 1012.3
20260903220704 99 146 4.0 11.0 0.00 0.00 0.00 36 1012.4
20260903220604 99 140 4.0 11.0 0.00 0.00 0.00 36 1012.4
20260903220504 99 133 4.0 11.0 0.00 0.00 0.00 37 1012.4
20260903220305 99 129 4.0 11.0 0.00 0.00 0.00 37 1012.3
20260903220205 99 129 4.0 11.0 0.00 0.00 0.00 37 1012.3
20260903220105 99 129 4.0 11.0 0.00 0.00 0.00 37 1012.4
20260903220005 99 130 4.0 11.0 0.00 0.00 0.00 37 1012.4
20260903215905 99 130 4.0 11.0 0.00 0.00 0.00 37 1012.4
20260903215805 99 131 4.0 10.0 0.00 0.00 0.00 37 1012.4
20260903215705 99 140 5.0 13.0 0.00 0.00 0.00 37 1012.4
20260903215504 99 151 5.0 13.0 0.00 0.00 0.00 37 1012.4
20260903215404 99 155 5.0 13.0 0.00 0.00 0.00 37 1012.4
20260903215306 99 159 5.0 13.0 0.00 0.00 0.00 37 1012.5
20260903215104 99 164 5.0 13.0 0.00 0.00 0.00 37 1012.5
20260903215004 99 168 5.0 13.0 0.00 0.00 0.00 37 1012.6
20260903214904 99 168 5.0 13.0 0.00 0.00 0.00 37 1012.6
20260903214804 99 168 5.0 13.0 0.00 0.00 0.00 37 1012.6
20260903214604 99 167 5.0 13.0 0.00 0.00 0.00 37 1012.5
20260903214504 100 170 5.0 13.0 0.00 0.00 0.00 37 1012.6
20260903214404 99 172 5.0 14.0 0.00 0.00 0.00 37 1012.6
20260903214305 99 168 5.0 14.0 0.00 0.00 0.00 37 1012.6
20260903214204 99 169 5.0 14.0 0.00 0.00 0.00 37 1012.7
20260903214105 99 166 5.0 14.0 0.00 0.00 0.00 38 1012.7
20260903214005 99 163 5.0 14.0 0.00 0.00 0.00 38 1012.7
20260903213905 99 163 5.0 14.0 0.00 0.00 0.00 38 1012.7
20260903213805 99 164 4.0 14.0 0.00 0.00 0.00 37 1012.7
20260903213705 99 152 4.0 14.0 0.00 0.00 0.00 37 1012.6
20260903213605 99 152 4.0 14.0 0.00 0.00 0.00 38 1012.7
20260903213505 99 149 4.0 14.0 0.00 0.00 0.00 37 1012.6
20260903213305 99 140 4.0 13.0 0.00 0.00 0.00 38 1012.7
20260903213205 99 137 4.0 13.0 0.00 0.00 0.00 38 1012.7
20260903213105 99 138 4.0 13.0 0.00 0.00 0.00 38 1012.7
20260903213005 99 141 4.0 13.0 0.00 0.00 0.00 38 1012.7
20260903212905 99 144 4.0 13.0 0.00 0.00 0.00 37 1012.7
20260903212804 99 139 4.0 9.0 0.00 0.00 0.00 37 1012.7
20260903212704 99 138 4.0 9.0 0.00 0.00 0.00 38 1012.8
20260903212504 99 135 4.0 9.0 0.00 0.00 0.00 38 1012.8
20260903212404 99 136 4.0 9.0 0.00 0.00 0.00 37 1012.8
20260903212306 99 137 4.0 9.0 0.00 0.00 0.00 38 1012.8
20260903212204 99 141 4.0 9.0 0.00 0.00 0.00 38 1012.8
20260903212004 99 135 4.0 9.0 0.00 0.00 0.00 38 1012.8
20260903211904 99 132 4.0 9.0 0.00 0.00 0.00 37 1012.8
20260903211704 99 131 4.0 9.0 0.00 0.00 0.00 38 1012.9
20260903211505 99 131 4.0 9.0 0.00 0.00 0.00 39 1012.8
20260903211405 99 133 4.0 9.0 0.00 0.00 0.00 39 1012.8
20260903211205 99 131 4.0 9.0 0.00 0.00 0.00 39 1012.9
20260903211105 99 132 4.0 9.0 0.00 0.00 0.00 38 1012.9
20260903211005 99 135 4.0 9.0 0.00 0.00 0.00 38 1012.9
20260903210905 99 139 4.0 8.0 0.00 0.00 0.00 38 1012.9
20260903210805 99 137 4.0 8.0 0.00 0.00 0.00 38 1013.0
20260903210705 99 139 4.0 8.0 0.00 0.00 0.00 38 1012.9
20260903210605 99 141 4.0 8.0 0.00 0.00 0.00 39 1012.9
20260903210505 99 140 4.0 8.0 0.00 0.00 0.00 38 1012.9
20260903210304 99 137 4.0 8.0 0.00 0.00 0.00 39 1013.0
20260903210204 99 140 5.0 8.0 0.00 0.00 0.00 39 1013.0
20260903210104 99 145 5.0 11.0 0.00 0.00 0.00 39 1013.0
20260903210004 99 143 5.0 11.0 0.00 0.00 0.00 39 1013.0
20260903205904 99 141 4.0 11.0 0.00 0.00 0.00 38 1012.9
20260903205804 99 141 5.0 11.0 0.00 0.00 0.00 38 1013.0
20260903205704 99 140 5.0 11.0 0.00 0.00 0.00 38 1013.0
20260903205604 99 137 5.0 11.0 0.00 0.00 0.00 38 1013.0
20260903205504 99 136 4.0 11.0 0.00 0.00 0.00 39 1013.1
20260903205404 99 137 5.0 11.0 0.00 0.00 0.00 39 1013.0
20260903205204 99 137 4.0 11.0 0.00 0.00 0.00 40 1013.0
20260903205104 99 133 4.0 11.0 0.00 0.00 0.00 40 1013.0
20260903204904 99 131 4.0 11.0 0.00 0.00 0.00 40 1013.1
20260903204804 99 131 4.0 11.0 0.00 0.00 0.00 40 1013.1
20260903204704 99 134 4.0 11.0 0.00 0.00 0.00 40 1013.1
20260903204504 99 145 4.0 12.0 0.00 0.00 0.00 40 1013.1
20260903204305 99 137 4.0 12.0 0.00 0.00 0.00 41 1013.1
20260903204005 98 134 5.0 12.0 0.00 0.00 0.00 40 1013.2
20260903203905 98 135 5.0 12.0 0.00 0.00 0.00 40 1013.1
20260903203805 98 136 5.0 12.0 0.00 0.00 0.00 40 1013.2
20260903203705 98 136 5.0 12.0 0.00 0.00 0.00 40 1013.2
20260903203605 98 138 5.0 12.0 0.00 0.00 0.00 40 1013.1
20260903203304 98 146 5.0 10.0 0.00 0.00 0.00 41 1013.1
20260903203205 98 153 5.0 11.0 0.00 0.00 0.00 40 1013.2
20260903203104 98 160 5.0 11.0 0.00 0.00 0.00 41 1013.1
20260903202904 98 169 5.0 12.0 0.00 0.00 0.00 41 1013.2
20260903202804 98 170 5.0 12.0 0.00 0.00 0.00 41 1013.2
20260903202704 98 169 5.0 12.0 0.00 0.00 0.00 41 1013.2
20260903202605 98 164 5.0 12.0 0.00 0.00 0.00 41 1013.3
20260903202505 98 163 5.0 12.0 0.00 0.00 0.00 41 1013.2
20260903202306 98 156 5.0 12.0 0.00 0.00 0.00 40 1013.2
20260903202205 98 149 4.0 12.0 0.00 0.00 0.00 40 1013.2
20260903202004 98 143 4.0 12.0 0.00 0.00 0.00 41 1013.3
20260903201904 99 141 5.0 10.0 0.00 0.00 0.00 41 1013.3
20260903201804 99 142 5.0 10.0 0.00 0.00 0.00 41 1013.3
20260903201704 99 145 4.0 10.0 0.00 0.00 0.00 40 1013.3
20260903201604 99 147 4.0 10.0 0.00 0.00 0.00 41 1013.3
20260903201404 98 148 4.0 10.0 0.00 0.00 0.00 42 1013.3
20260903201304 98 153 4.0 10.0 0.00 0.00 0.00 41 1013.4
20260903201204 98 156 4.0 10.0 0.00 0.00 0.00 42 1013.3
20260903201104 98 156 4.0 10.0 0.00 0.00 0.00 41 1013.4
20260903200904 98 157 4.0 10.0 0.00 0.00 0.00 42 1013.4
20260903200804 98 159 4.0 10.0 0.00 0.00 0.00 42 1013.4
20260903200604 98 162 4.0 10.0 0.00 0.00 0.00 41 1013.4
20260903200504 98 161 4.0 10.0 0.00 0.00 0.00 42 1013.4
20260903200404 98 161 4.0 10.0 0.00 0.00 0.00 42 1013.5
20260903200304 98 154 4.0 10.0 0.00 0.00 0.00 42 1013.5
20260903200204 98 155 4.0 15.0 0.00 0.00 0.00 42 1013.5
20260903200105 98 159 4.0 15.0 0.00 0.00 0.00 41 1013.5
20260903200004 98 153 4.0 15.0 0.00 0.00 0.00 42 1013.5
20260903195904 98 153 4.0 15.0 0.00 0.00 0.00 41 1013.5
20260903195804 98 150 4.0 15.0 0.00 0.00 0.00 42 1013.4
20260903195705 98 146 4.0 15.0 0.00 0.00 0.00 42 1013.4
20260903195604 98 145 4.0 15.0 0.00 0.00 0.00 42 1013.4
20260903195505 98 149 4.0 15.0 0.00 0.00 0.00 42 1013.4
20260903195405 98 148 4.0 15.0 0.00 0.00 0.00 42 1013.5
20260903195306 98 152 4.0 15.0 0.00 0.00 0.00 42 1013.4
20260903195204 98 146 4.0 9.0 0.00 0.00 0.00 43 1013.5
20260903195104 98 141 4.0 10.0 0.00 0.00 0.00 43 1013.4
20260903195004 98 139 4.0 10.0 0.00 0.00 0.00 43 1013.5
20260903194904 98 142 5.0 13.0 0.00 0.00 0.00 43 1013.4
20260903194804 97 151 5.0 13.0 0.00 0.00 0.00 44 1013.5
20260903194704 97 156 5.0 13.0 0.00 0.00 0.00 43 1013.5
20260903194504 97 161 6.0 13.0 0.00 0.00 0.00 44 1013.5
20260903194404 97 164 6.0 13.0 0.00 0.00 0.00 44 1013.5
20260903194304 97 166 6.0 13.0 0.00 0.00 0.00 43 1013.6
20260903194204 97 167 6.0 13.0 0.00 0.00 0.00 44 1013.5
20260903194105 96 168 6.0 13.0 0.00 0.00 0.00 44 1013.6
20260903193905 97 173 6.0 13.0 0.00 0.00 0.00 44 1013.6
20260903193805 97 172 6.0 16.0 0.00 0.00 0.00 45 1013.6
20260903193705 97 167 6.0 16.0 0.00 0.00 0.00 44 1013.6
20260903193605 97 162 6.0 16.0 0.00 0.00 0.00 44 1013.7
20260903193304 97 162 5.0 16.0 0.00 0.00 0.00 44 1013.6
20260903193104 97 168 5.0 16.0 0.00 0.00 0.00 43 1013.7
20260903192904 97 163 5.0 16.0 0.00 0.00 0.00 44 1013.7
20260903192704 97 160 5.0 11.0 0.00 0.00 0.00 45 1013.8
20260903192604 97 171 5.0 12.0 0.00 0.00 0.00 45 1013.8
20260903192404 97 174 5.0 12.0 0.00 0.00 0.00 44 1013.9
20260903192306 97 169 5.0 12.0 0.00 0.00 0.00 44 1013.9
20260903192204 97 168 5.0 12.0 0.00 0.00 0.00 44 1013.9
20260903192105 97 169 5.0 12.0 0.00 0.00 0.00 44 1013.9
20260903192005 97 168 5.0 12.0 0.00 0.00 0.00 45 1013.9
20260903191805 97 172 5.0 12.0 0.00 0.00 0.00 44 1013.9
20260903191705 97 169 4.0 12.0 0.00 0.00 0.00 44 1014.0
20260903191605 97 161 4.0 11.0 0.00 0.00 0.00 44 1014.0
20260903191505 97 155 4.0 11.0 0.00 0.00 0.00 45 1014.0
20260903191405 97 146 4.0 9.0 0.00 0.00 0.00 44 1014.0
20260903191304 97 159 4.0 13.0 0.00 0.00 0.00 45 1014.0
20260903191204 97 162 5.0 13.0 0.00 0.00 0.00 44 1014.0
20260903191104 97 168 4.0 13.0 0.00 0.00 0.00 44 1014.0
20260903191004 97 170 5.0 13.0 0.00 0.00 0.00 45 1014.0
20260903190904 96 163 5.0 13.0 0.00 0.00 0.00 45 1014.0
20260903190804 96 157 5.0 13.0 0.00 0.00 0.00 45 1014.0
20260903190704 96 165 5.0 13.0 0.00 0.00 0.00 45 1014.0
20260903190604 96 165 5.0 13.0 0.00 0.00 0.00 45 1014.1
20260903190404 96 171 5.0 13.0 0.00 0.00 0.00 45 1014.1
20260903190304 96 166 5.0 13.0 0.00 0.00 0.00 45 1014.1
20260903190104 96 163 5.0 13.0 0.00 0.00 0.00 45 1014.1
20260903190004 96 173 5.0 13.0 0.00 0.00 0.00 44 1014.2
20260903185904 96 181 5.0 13.0 0.00 0.00 0.00 45 1014.2
20260903185805 96 183 5.0 13.0 0.00 0.00 0.00 46 1014.2
20260903185705 96 179 5.0 13.0 0.00 0.00 0.00 47 1014.2
20260903185605 96 181 5.0 13.0 0.00 0.00 0.00 46 1014.2
20260903185505 96 184 5.0 13.0 0.00 0.00 0.00 46 1014.2
20260903185204 96 176 5.0 13.0 0.00 0.00 0.00 44 1014.2
20260903185004 96 160 4.0 11.0 0.00 0.00 0.00 44 1014.3
20260903184904 96 159 4.0 11.0 0.00 0.00 0.00 45 1014.3
20260903184804 96 159 4.0 11.0 0.00 0.00 0.00 44 1014.3
20260903184704 96 158 4.0 11.0 0.00 0.00 0.00 45 1014.3
20260903184604 96 153 4.0 11.0 0.00 0.00 0.00 45 1014.3
20260903184504 96 150 4.0 11.0 0.00 0.00 0.00 44 1014.4
20260903184404 97 151 3.0 11.0 0.00 0.00 0.00 45 1014.3
20260903184304 97 153 4.0 11.0 0.00 0.00 0.00 45 1014.4
20260903184205 96 149 4.0 9.0 0.00 0.00 0.00 46 1014.4
20260903184104 96 148 4.0 9.0 0.00 0.00 0.00 45 1014.4
20260903184004 96 151 4.0 10.0 0.00 0.00 0.00 44 1014.5
20260903183904 96 153 5.0 10.0 0.00 0.00 0.00 45 1014.5
20260903183704 96 163 5.0 14.0 0.00 0.00 0.00 46 1014.6
20260903183604 96 174 5.0 14.0 0.00 0.00 0.00 46 1014.6
20260903183504 96 174 5.0 14.0 0.00 0.00 0.00 46 1014.6
20260903183404 95 179 5.0 14.0 0.00 0.00 0.00 47 1014.6
20260903183304 95 177 5.0 14.0 0.00 0.00 0.00 47 1014.5
20260903183204 95 182 5.0 14.0 0.00 0.00 0.00 47 1014.5
20260903183104 95 184 5.0 14.0 0.00 0.00 0.00 47 1014.6
20260903183004 95 183 5.0 14.0 0.00 0.00 0.00 47 1014.5
20260903182904 95 179 5.0 14.0 0.00 0.00 0.00 46 1014.5
20260903182804 96 173 4.0 12.0 0.00 0.00 0.00 46 1014.6
20260903182704 96 167 4.0 12.0 0.00 0.00 0.00 46 1014.6
20260903182604 95 153 4.0 12.0 0.00 0.00 0.00 47 1014.6
20260903182504 95 151 4.0 9.0 0.00 0.00 0.00 47 1014.7
20260903182404 95 146 4.0 9.0 0.00 0.00 0.00 47 1014.7
20260903182204 95 147 4.0 11.0 0.00 0.00 0.00 47 1014.7
20260903182104 95 144 4.0 11.0 0.00 0.00 0.00 46 1014.7
20260903182004 95 141 4.0 11.0 0.00 0.00 0.00 47 1014.7
20260903181904 95 145 4.0 11.0 0.00 0.00 0.00 48 1014.8
20260903181804 95 143 4.0 11.0 0.00 0.00 0.00 47 1014.8
20260903181604 95 153 4.0 11.0 0.00 0.00 0.00 47 1014.7
20260903181504 95 153 4.0 11.0 0.00 0.00 0.00 47 1014.8
20260903181404 95 151 4.0 11.0 0.00 0.00 0.00 47 1014.8
20260903181304 95 148 4.0 9.0 0.00 0.00 0.00 47 1014.8
20260903181004 95 153 4.0 12.0 0.00 0.00 0.00 48 1014.8
20260903180904 95 155 4.0 13.0 0.00 0.00 0.00 48 1014.8
20260903180804 95 157 4.0 13.0 0.00 0.00 0.00 48 1014.8
20260903180704 94 154 4.0 13.0 0.00 0.00 0.00 49 1014.9
20260903180604 94 153 4.0 13.0 0.00 0.00 0.00 48 1014.9
20260903180505 94 155 5.0 13.0 0.00 0.00 0.00 48 1014.9
20260903180404 94 155 5.0 13.0 0.00 0.00 0.00 49 1015.0
20260903180305 94 158 5.0 13.0 0.00 0.00 0.00 48 1014.9
20260903180205 94 164 5.0 13.0 0.00 0.00 0.00 49 1014.9
20260903180005 94 168 5.0 13.0 0.00 0.00 0.00 49 1015.0
20260903175905 94 164 5.0 11.0 0.00 0.00 0.00 49 1015.0
20260903175805 94 162 5.0 11.0 0.00 0.00 0.00 49 1015.0
20260903175604 94 169 5.0 12.0 0.00 0.00 0.00 49 1015.0
20260903175504 94 174 5.0 14.0 0.00 0.00 0.00 49 1015.1
20260903175404 94 178 5.0 14.0 0.00 0.00 0.00 49 1015.1
20260903175204 94 173 5.0 14.0 0.00 0.00 0.00 50 1015.2
20260903175104 94 169 5.0 14.0 0.00 0.00 0.00 49 1015.1
20260903174904 93 163 5.0 14.0 0.00 0.00 0.00 50 1015.1
20260903174804 93 161 5.0 14.0 0.00 0.00 0.00 51 1015.2
20260903174704 93 157 5.0 14.0 0.00 0.00 0.00 50 1015.1
20260903174504 93 147 5.0 11.0 0.00 0.00 0.00 50 1015.1
20260903174404 93 147 5.0 11.0 0.00 0.00 0.00 51 1015.2
20260903174304 93 144 5.0 11.0 0.00 0.00 0.00 50 1015.2
20260903174204 93 145 4.0 11.0 0.00 0.00 0.00 50 1015.2
20260903174104 93 143 4.0 11.0 0.00 0.00 0.00 50 1015.2
20260903174004 93 149 4.0 13.0 0.00 0.00 0.00 50 1015.2
20260903173904 93 155 4.0 13.0 0.00 0.00 0.00 51 1015.3
20260903173805 93 158 4.0 13.0 0.00 0.00 0.00 51 1015.3
20260903173705 93 161 4.0 13.0 0.00 0.00 0.00 51 1015.4
20260903173605 93 162 5.0 13.0 0.00 0.00 0.00 52 1015.4
20260903173505 92 165 5.0 13.0 0.00 0.00 0.00 52 1015.4
20260903173404 92 171 6.0 14.0 0.00 0.00 0.00 52 1015.3
20260903173305 92 177 6.0 14.0 0.00 0.00 0.00 52 1015.3
20260903173205 92 185 7.0 14.0 0.00 0.00 0.00 53 1015.4
20260903173105 92 190 7.0 14.0 0.00 0.00 0.00 52 1015.3
20260903173005 92 184 6.0 14.0 0.00 0.00 0.00 53 1015.4
20260903172805 91 178 7.0 14.0 0.00 0.00 0.00 53 1015.4
20260903172604 91 169 7.0 14.0 0.00 0.00 0.00 53 1015.5
20260903172504 91 164 6.0 14.0 0.00 0.00 0.00 53 1015.5
20260903172404 91 158 6.0 14.0 0.00 0.00 0.00 53 1015.5
20260903172306 91 152 5.0 14.0 0.00 0.00 0.00 53 1015.5
20260903172204 91 140 5.0 12.0 0.00 0.00 0.00 53 1015.6
20260903172104 91 132 5.0 16.0 0.00 0.00 0.00 53 1015.6
20260903172004 92 132 5.0 16.0 0.00 0.00 0.00 52 1015.6
20260903171904 92 135 5.0 16.0 0.00 0.00 0.00 52 1015.6
20260903171804 92 134 5.0 16.0 0.00 0.00 0.00 52 1015.5
20260903171704 92 134 4.0 16.0 0.00 0.00 0.00 52 1015.6
20260903171604 92 133 4.0 16.0 0.00 0.00 0.00 52 1015.6
20260903171504 92 138 4.0 16.0 0.00 0.00 0.00 53 1015.7
20260903171404 92 137 4.0 16.0 0.00 0.00 0.00 53 1015.7
20260903171304 92 139 4.0 16.0 0.00 0.00 0.00 53 1015.7
20260903171005 91 138 5.0 13.0 0.00 0.00 0.00 54 1015.7
20260903170904 91 134 5.0 13.0 0.00 0.00 0.00 53 1015.6
20260903170804 91 136 5.0 13.0 0.00 0.00 0.00 53 1015.6
20260903170704 91 143 5.0 13.0 0.00 0.00 0.00 54 1015.8
20260903170604 91 148 5.0 13.0 0.00 0.00 0.00 54 1015.8
20260903170504 91 146 5.0 13.0 0.00 0.00 0.00 54 1015.8
20260903170304 91 148 4.0 13.0 0.00 0.00 0.00 53 1015.7
20260903170204 92 152 4.0 13.0 0.00 0.00 0.00 53 1015.7
20260903170104 92 156 4.0 9.0 0.00 0.00 0.00 54 1015.8
20260903170004 91 153 4.0 9.0 0.00 0.00 0.00 54 1015.8
20260903165904 91 156 4.0 9.0 0.00 0.00 0.00 54 1015.8
20260903165804 91 152 4.0 9.0 0.00 0.00 0.00 53 1015.7
20260903165604 91 141 3.0 8.0 0.00 0.00 0.00 55 1015.8
20260903165504 91 141 4.0 8.0 0.00 0.00 0.00 55 1015.7
20260903165405 91 146 4.0 12.0 0.00 0.00 0.00 55 1015.8
20260903165204 91 148 4.0 13.0 0.00 0.00 0.00 55 1015.8
20260903165104 91 150 5.0 13.0 0.00 0.00 0.00 54 1015.7
20260903165004 91 157 5.0 14.0 0.00 0.00 0.00 55 1015.8
20260903164904 91 160 5.0 14.0 0.00 0.00 0.00 55 1015.8
20260903164804 90 159 5.0 14.0 0.00 0.00 0.00 55 1015.8
20260903164504 90 167 4.0 14.0 0.00 0.00 0.00 55 1015.7
20260903164404 90 164 4.0 14.0 0.00 0.00 0.00 55 1015.8
20260903164304 90 162 4.0 14.0 0.00 0.00 0.00 55 1015.9
20260903164204 91 162 4.0 14.0 0.00 0.00 0.00 55 1015.8
20260903164105 91 166 3.0 14.0 0.00 0.00 0.00 54 1015.8
20260903163905 91 164 3.0 8.0 0.00 0.00 0.00 55 1015.8
20260903163704 90 167 4.0 9.0 0.00 0.00 0.00 56 1015.8
20260903163504 90 173 4.0 11.0 0.00 0.00 0.00 57 1015.9
20260903163404 90 170 4.0 11.0 0.00 0.00 0.00 57 1015.9
20260903163104 89 173 5.0 11.0 0.00 0.00 0.00 57 1015.9
20260903163004 89 173 5.0 12.0 0.00 0.00 0.00 57 1015.9
20260903162804 89 182 5.0 12.0 0.00 0.00 0.00 57 1015.8
20260903162704 89 181 5.0 12.0 0.00 0.00 0.00 57 1015.9
20260903162604 89 178 5.0 12.0 0.00 0.00 0.00 58 1015.9
20260903162504 89 177 5.0 12.0 0.00 0.00 0.00 58 1015.8
20260903162404 89 177 5.0 12.0 0.00 0.00 0.00 58 1015.9
20260903162306 88 175 5.0 12.0 0.00 0.00 0.00 58 1015.8
20260903162204 88 175 5.0 12.0 0.00 0.00 0.00 57 1015.8
20260903162104 89 176 5.0 14.0 0.00 0.00 0.00 57 1015.8
20260903162004 89 177 6.0 14.0 0.00 0.00 0.00 58 1015.8
20260903161904 88 182 5.0 15.0 0.00 0.00 0.00 58 1015.8
20260903161804 88 176 6.0 15.0 0.00 0.00 0.00 59 1015.8
20260903161705 88 178 6.0 15.0 0.00 0.00 0.00 59 1015.9
20260903161604 88 178 6.0 15.0 0.00 0.00 0.00 59 1015.8
20260903161504 88 177 6.0 15.0 0.00 0.00 0.00 59 1015.8
20260903161304 87 182 6.0 16.0 0.00 0.00 0.00 59 1015.9
20260903161204 87 184 6.0 16.0 0.00 0.00 0.00 59 1015.8
20260903161104 87 184 6.0 16.0 0.00 0.00 0.00 59 1015.8
20260903161004 88 184 6.0 16.0 0.00 0.00 0.00 59 1015.8
20260903160904 88 177 6.0 16.0 0.00 0.00 0.00 59 1015.9
20260903160804 87 182 7.0 16.0 0.00 0.00 0.00 59 1015.8
20260903160704 87 184 7.0 16.0 0.00 0.00 0.00 60 1015.9
20260903160604 87 184 7.0 16.0 0.00 0.00 0.00 60 1015.9
20260903160404 87 183 7.0 15.0 0.00 0.00 0.00 60 1015.9
20260903160304 87 185 6.0 15.0 0.00 0.00 0.00 60 1015.9
20260903160204 87 183 6.0 15.0 0.00 0.00 0.00 60 1015.9
20260903160104 87 181 6.0 15.0 0.00 0.00 0.00 60 1015.9
20260903160004 87 181 6.0 15.0 0.00 0.00 0.00 60 1015.9
20260903155904 87 181 6.0 15.0 0.00 0.00 0.00 60 1015.9
20260903155804 87 175 6.0 14.0 0.00 0.00 0.00 60 1015.9
20260903155704 87 172 6.0 14.0 0.00 0.00 0.00 60 1015.9
20260903155504 87 169 6.0 16.0 0.00 0.00 0.00 61 1015.9
20260903155306 87 171 6.0 16.0 0.00 0.00 0.00 61 1015.8
20260903155204 86 169 6.0 16.0 0.00 0.00 0.00 62 1015.9
20260903155104 86 168 6.0 16.0 0.00 0.00 0.00 61 1015.8
20260903155004 86 166 6.0 16.0 0.00 0.00 0.00 61 1015.8
20260903154904 86 163 6.0 16.0 0.00 0.00 0.00 62 1015.9
20260903154805 86 164 6.0 16.0 0.00 0.00 0.00 61 1015.8
20260903154704 86 164 6.0 16.0 0.00 0.00 0.00 61 1015.9
20260903154604 86 168 5.0 16.0 0.00 0.00 0.00 61 1015.9
20260903154404 86 160 5.0 14.0 0.00 0.00 0.00 61 1015.9
20260903154304 86 164 5.0 15.0 0.00 0.00 0.00 62 1015.9
20260903154204 86 165 6.0 15.0 0.00 0.00 0.00 62 1015.8
20260903154104 86 165 6.0 15.0 0.00 0.00 0.00 61 1015.9
20260903153904 86 165 6.0 15.0 0.00 0.00 0.00 62 1015.9
20260903153804 86 162 5.0 15.0 0.00 0.00 0.00 62 1015.8
20260903153704 86 160 5.0 15.0 0.00 0.00 0.00 62 1015.8
20260903153504 86 163 6.0 15.0 0.00 0.00 0.00 63 1015.8
20260903153404 86 162 6.0 15.0 0.00 0.00 0.00 62 1015.8
20260903153304 86 159 6.0 12.0 0.00 0.00 0.00 62 1015.9
20260903153104 86 159 6.0 12.0 0.00 0.00 0.00 62 1015.9
20260903153004 86 158 5.0 12.0 0.00 0.00 0.00 62 1016.0
20260903152904 86 159 5.0 12.0 0.00 0.00 0.00 63 1016.0
20260903152704 85 164 5.0 12.0 0.00 0.00 0.00 63 1016.0
20260903152504 85 167 5.0 12.0 0.00 0.00 0.00 63 1016.0
20260903152405 85 168 5.0 11.0 0.00 0.00 0.00 63 1016.0
20260903152306 85 163 5.0 11.0 0.00 0.00 0.00 63 1016.0
20260903152204 85 166 5.0 14.0 0.00 0.00 0.00 63 1016.0
20260903152004 85 174 6.0 14.0 0.00 0.00 0.00 64 1016.1
20260903151904 85 176 6.0 14.0 0.00 0.00 0.00 64 1016.0
20260903151804 85 181 6.0 14.0 0.00 0.00 0.00 64 1016.0
20260903151704 85 181 6.0 14.0 0.00 0.00 0.00 64 1016.0
20260903151604 85 182 6.0 14.0 0.00 0.00 0.00 64 1016.0
20260903151504 85 183 7.0 14.0 0.00 0.00 0.00 64 1016.0
20260903151404 85 184 7.0 14.0 0.00 0.00 0.00 64 1016.0
20260903151204 84 185 7.0 13.0 0.00 0.00 0.00 65 1016.0
20260903151104 84 184 6.0 13.0 0.00 0.00 0.00 65 1016.0
20260903151005 84 182 6.0 13.0 0.00 0.00 0.00 64 1016.0
20260903150905 84 181 6.0 13.0 0.00 0.00 0.00 65 1016.0
20260903150804 84 173 5.0 12.0 0.00 0.00 0.00 65 1016.0
20260903150704 84 172 5.0 12.0 0.00 0.00 0.00 64 1016.0
20260903150604 84 169 5.0 12.0 0.00 0.00 0.00 64 1016.0
20260903150504 84 165 5.0 12.0 0.00 0.00 0.00 64 1016.1
20260903150404 85 165 5.0 12.0 0.00 0.00 0.00 64 1016.1
20260903150304 85 166 5.0 12.0 0.00 0.00 0.00 64 1016.0
20260903150204 85 165 4.0 12.0 0.00 0.00 0.00 64 1016.1
20260903150104 85 164 4.0 12.0 0.00 0.00 0.00 65 1016.0
20260903150004 84 163 4.0 12.0 0.00 0.00 0.00 65 1016.0
20260903145804 84 164 5.0 12.0 0.00 0.00 0.00 65 1016.0
20260903145306 84 163 5.0 14.0 0.00 0.00 0.00 65 1016.0
20260903145204 84 164 5.0 14.0 0.00 0.00 0.00 66 1016.1
20260903145104 84 164 5.0 14.0 0.00 0.00 0.00 66 1016.1
20260903145004 84 163 5.0 14.0 0.00 0.00 0.00 66 1016.1
20260903144904 84 168 5.0 14.0 0.00 0.00 0.00 66 1016.1
20260903144804 84 172 5.0 14.0 0.00 0.00 0.00 66 1016.1
20260903144704 84 170 6.0 14.0 0.00 0.00 0.00 66 1016.0
20260903144504 83 173 6.0 14.0 0.00 0.00 0.00 66 1016.0
20260903144404 83 175 6.0 14.0 0.00 0.00 0.00 66 1016.1
20260903144304 83 173 6.0 13.0 0.00 0.00 0.00 66 1016.0
20260903144204 83 171 6.0 17.0 0.00 0.00 0.00 67 1016.0
20260903144104 83 170 6.0 17.0 0.00 0.00 0.00 67 1016.1
20260903144004 83 172 6.0 17.0 0.00 0.00 0.00 66 1016.1
20260903143904 83 168 6.0 17.0 0.00 0.00 0.00 67 1016.0
20260903143804 83 166 6.0 17.0 0.00 0.00 0.00 67 1016.0
20260903143704 83 166 6.0 17.0 0.00 0.00 0.00 67 1016.1
20260903143604 83 164 6.0 17.0 0.00 0.00 0.00 67 1016.0
20260903143304 83 159 5.0 17.0 0.00 0.00 0.00 67 1016.0
20260903143205 83 161 5.0 16.0 0.00 0.00 0.00 67 1016.0
20260903143105 83 164 5.0 11.0 0.00 0.00 0.00 67 1016.0
20260903143005 83 162 5.0 13.0 0.00 0.00 0.00 67 1016.0
20260903142905 83 160 5.0 13.0 0.00 0.00 0.00 67 1016.1
20260903142805 83 162 5.0 13.0 0.00 0.00 0.00 67 1016.0
20260903142704 83 162 5.0 13.0 0.00 0.00 0.00 67 1016.1
20260903142604 83 162 5.0 13.0 0.00 0.00 0.00 67 1016.0
20260903142504 83 165 5.0 13.0 0.00 0.00 0.00 68 1016.1
20260903142404 82 168 5.0 13.0 0.00 0.00 0.00 68 1016.1
20260903142306 82 165 6.0 13.0 0.00 0.00 0.00 67 1016.1
20260903142204 82 164 6.0 13.0 0.00 0.00 0.00 67 1016.1
20260903142104 82 163 5.0 13.0 0.00 0.00 0.00 67 1016.2
20260903142004 82 164 6.0 13.0 0.00 0.00 0.00 68 1016.1
20260903141904 82 167 6.0 13.0 0.00 0.00 0.00 68 1016.2
20260903141804 82 164 5.0 13.0 0.00 0.00 0.00 68 1016.2
20260903141704 82 166 5.0 13.0 0.00 0.00 0.00 68 1016.1
20260903141604 82 168 5.0 13.0 0.00 0.00 0.00 68 1016.2
20260903141504 82 167 5.0 13.0 0.00 0.00 0.00 68 1016.1
20260903141404 82 163 5.0 13.0 0.00 0.00 0.00 68 1016.2
20260903141304 82 165 5.0 13.0 0.00 0.00 0.00 68 1016.2
20260903141204 82 163 4.0 13.0 0.00 0.00 0.00 68 1016.2
20260903141104 82 161 4.0 13.0 0.00 0.00 0.00 68 1016.3
20260903140904 82 168 4.0 12.0 0.00 0.00 0.00 68 1016.3
20260903140804 82 169 5.0 13.0 0.00 0.00 0.00 68 1016.3
20260903140704 82 173 5.0 13.0 0.00 0.00 0.00 69 1016.2
20260903140404 82 172 5.0 13.0 0.00 0.00 0.00 69 1016.3
20260903140304 82 171 5.0 13.0 0.00 0.00 0.00 69 1016.3
20260903140204 82 172 5.0 13.0 0.00 0.00 0.00 69 1016.4
20260903140005 81 172 4.0 13.0 0.00 0.00 0.00 69 1016.4
20260903135904 81 170 4.0 13.0 0.00 0.00 0.00 69 1016.4
20260903135805 81 170 4.0 12.0 0.00 0.00 0.00 69 1016.4
20260903135705 81 167 4.0 11.0 0.00 0.00 0.00 69 1016.4
20260903135604 81 169 4.0 11.0 0.00 0.00 0.00 69 1016.4
20260903135204 81 170 4.0 12.0 0.00 0.00 0.00 70 1016.4
20260903135104 81 172 4.0 12.0 0.00 0.00 0.00 69 1016.3
20260903135004 81 171 5.0 12.0 0.00 0.00 0.00 70 1016.3
20260903134804 81 169 5.0 12.0 0.00 0.00 0.00 69 1016.3
20260903134704 81 168 4.0 12.0 0.00 0.00 0.00 69 1016.3
20260903134605 81 164 4.0 12.0 0.00 0.00 0.00 69 1016.2
20260903134505 81 161 4.0 12.0 0.00 0.00 0.00 70 1016.3
20260903134405 81 156 4.0 12.0 0.00 0.00 0.00 70 1016.3
20260903134204 81 157 3.0 12.0 0.00 0.00 0.00 70 1016.3
20260903134104 81 150 3.0 8.0 0.00 0.00 0.00 70 1016.3
20260903134004 81 152 3.0 8.0 0.00 0.00 0.00 70 1016.3
20260903133804 80 149 3.0 7.0 0.00 0.00 0.00 70 1016.4
20260903133704 80 154 3.0 8.0 0.00 0.00 0.00 70 1016.4
20260903133604 80 157 3.0 8.0 0.00 0.00 0.00 70 1016.4
20260903133404 80 160 3.0 9.0 0.00 0.00 0.00 71 1016.4
20260903133304 80 160 3.0 9.0 0.00 0.00 0.00 71 1016.4
20260903133204 80 157 3.0 9.0 0.00 0.00 0.00 71 1016.4
20260903133104 80 158 4.0 9.0 0.00 0.00 0.00 71 1016.4
20260903133004 80 156 4.0 9.0 0.00 0.00 0.00 71 1016.4
20260903132904 79 156 3.0 9.0 0.00 0.00 0.00 72 1016.4
20260903132804 79 154 3.0 9.0 0.00 0.00 0.00 71 1016.4
20260903132704 79 146 3.0 9.0 0.00 0.00 0.00 72 1016.4
20260903132604 79 143 3.0 9.0 0.00 0.00 0.00 72 1016.4
20260903132204 79 139 3.0 8.0 0.00 0.00 0.00 72 1016.5
20260903132104 79 137 2.0 8.0 0.00 0.00 0.00 73 1016.5
20260903132004 78 136 2.0 8.0 0.00 0.00 0.00 73 1016.5
20260903131904 78 138 2.0 8.0 0.00 0.00 0.00 72 1016.5
20260903131804 78 137 2.0 8.0 0.00 0.00 0.00 73 1016.5
20260903131704 78 138 2.0 8.0 0.00 0.00 0.00 72 1016.5
20260903131405 78 142 2.0 8.0 0.00 0.00 0.00 72 1016.5
20260903131204 78 141 2.0 8.0 0.00 0.00 0.00 72 1016.5
20260903131104 78 143 2.0 6.0 0.00 0.00 0.00 72 1016.5
20260903131004 78 139 2.0 6.0 0.00 0.00 0.00 72 1016.5
20260903130804 78 144 2.0 6.0 0.00 0.00 0.00 72 1016.4
20260903130605 78 146 2.0 7.0 0.00 0.00 0.00 72 1016.5
20260903130504 78 144 2.0 7.0 0.00 0.00 0.00 72 1016.5
20260903130404 78 147 2.0 7.0 0.00 0.00 0.00 72 1016.5
20260903130304 78 148 2.0 7.0 0.00 0.00 0.00 72 1016.5
20260903130204 78 150 2.0 7.0 0.00 0.00 0.00 72 1016.4
20260903130105 78 152 2.0 7.0 0.00 0.00 0.00 72 1016.5
20260903130005 78 152 2.0 7.0 0.00 0.00 0.00 72 1016.4
20260903125905 78 151 2.0 7.0 0.00 0.00 0.00 73 1016.4
20260903125704 78 148 2.0 6.0 0.00 0.00 0.00 73 1016.4
20260903125604 78 149 2.0 6.0 0.00 0.00 0.00 73 1016.4
20260903125404 78 149 2.0 6.0 0.00 0.00 0.00 73 1016.4
20260903125305 78 149 2.0 6.0 0.00 0.00 0.00 73 1016.3
20260903125204 78 146 2.0 6.0 0.00 0.00 0.00 73 1016.3
20260903125104 78 142 2.0 6.0 0.00 0.00 0.00 73 1016.3
20260903125004 78 143 2.0 6.0 0.00 0.00 0.00 73 1016.3
20260903124904 78 145 2.0 6.0 0.00 0.00 0.00 73 1016.4
20260903124704 77 144 2.0 4.0 0.00 0.00 0.00 73 1016.4
20260903124504 77 143 2.0 4.0 0.00 0.00 0.00 74 1016.4
20260903124404 77 141 2.0 4.0 0.00 0.00 0.00 74 1016.4
20260903124304 77 140 2.0 4.0 0.00 0.00 0.00 74 1016.4
20260903124104 77 145 2.0 4.0 0.00 0.00 0.00 74 1016.4
20260903124005 77 144 2.0 4.0 0.00 0.00 0.00 74 1016.3
20260903123804 77 144 2.0 4.0 0.00 0.00 0.00 74 1016.3
20260903123704 77 143 2.0 4.0 0.00 0.00 0.00 74 1016.3
20260903123604 77 154 2.0 7.0 0.00 0.00 0.00 74 1016.3
20260903123504 77 156 2.0 7.0 0.00 0.00 0.00 74 1016.3
20260903123404 77 155 2.0 7.0 0.00 0.00 0.00 74 1016.3
20260903123304 77 156 2.0 7.0 0.00 0.00 0.00 74 1016.3
20260903123204 77 155 2.0 7.0 0.00 0.00 0.00 74 1016.3
20260903123104 77 155 2.0 7.0 0.00 0.00 0.00 74 1016.3
20260903123004 77 153 2.0 7.0 0.00 0.00 0.00 74 1016.3
20260903122904 77 152 2.0 7.0 0.00 0.00 0.00 73 1016.2
20260903122804 77 152 2.0 7.0 0.00 0.00 0.00 73 1016.2
20260903122704 77 153 2.0 7.0 0.00 0.00 0.00 74 1016.2
20260903122604 77 143 2.0 7.0 0.00 0.00 0.00 73 1016.1
20260903122504 77 142 2.0 7.0 0.00 0.00 0.00 73 1016.2
20260903122404 77 143 2.0 7.0 0.00 0.00 0.00 73 1016.1
20260903122204 77 141 2.0 5.0 0.00 0.00 0.00 73 1016.2
20260903122104 77 140 1.0 5.0 0.00 0.00 0.00 73 1016.1
20260903122004 77 141 2.0 5.0 0.00 0.00 0.00 73 1016.1
20260903121904 77 144 1.0 5.0 0.00 0.00 0.00 73 1016.1
20260903121804 77 143 1.0 5.0 0.00 0.00 0.00 73 1016.1
20260903121704 77 143 1.0 5.0 0.00 0.00 0.00 73 1016.1
20260903121504 77 146 2.0 5.0 0.00 0.00 0.00 73 1016.0
20260903121404 77 145 2.0 5.0 0.00 0.00 0.00 73 1016.0
20260903121304 77 144 1.0 5.0 0.00 0.00 0.00 73 1016.0
20260903121204 77 147 1.0 5.0 0.00 0.00 0.00 73 1016.0
20260903121005 77 152 2.0 5.0 0.00 0.00 0.00 73 1015.9
20260903120904 77 153 2.0 6.0 0.00 0.00 0.00 73 1016.0
20260903120804 77 154 2.0 6.0 0.00 0.00 0.00 73 1015.9
20260903120704 77 156 1.0 6.0 0.00 0.00 0.00 73 1015.9
20260903120604 77 156 1.0 6.0 0.00 0.00 0.00 73 1015.9
20260903120404 77 161 2.0 6.0 0.00 0.00 0.00 73 1016.0
20260903120304 77 164 2.0 7.0 0.00 0.00 0.00 73 1015.9
20260903120204 77 162 2.0 7.0 0.00 0.00 0.00 73 1016.0
20260903120104 77 163 2.0 10.0 0.00 0.00 0.00 73 1016.0
20260903120004 77 162 2.0 10.0 0.00 0.00 0.00 73 1015.9
20260903115904 77 160 2.0 10.0 0.00 0.00 0.00 73 1015.9
20260903115804 77 160 2.0 10.0 0.00 0.00 0.00 73 1015.9
20260903115704 77 159 2.0 10.0 0.00 0.00 0.00 73 1015.9
20260903115604 77 158 2.0 10.0 0.00 0.00 0.00 73 1015.9
20260903115504 77 155 2.0 10.0 0.00 0.00 0.00 72 1015.8
20260903115404 77 156 2.0 10.0 0.00 0.00 0.00 72 1015.8
20260903115305 77 156 2.0 10.0 0.00 0.00 0.00 72 1015.9
20260903115204 77 157 2.0 10.0 0.00 0.00 0.00 72 1015.8
20260903115104 77 158 2.0 6.0 0.00 0.00 0.00 72 1015.8
20260903115004 77 161 2.0 6.0 0.00 0.00 0.00 72 1015.8
20260903114804 77 164 2.0 6.0 0.00 0.00 0.00 72 1015.8
20260903114705 77 162 2.0 6.0 0.00 0.00 0.00 72 1015.8
20260903114604 77 163 2.0 6.0 0.00 0.00 0.00 72 1015.8
20260903114505 77 161 2.0 6.0 0.00 0.00 0.00 72 1015.8
20260903114304 77 155 2.0 6.0 0.00 0.00 0.00 72 1015.7
20260903114004 77 144 2.0 6.0 0.00 0.00 0.00 72 1015.7
20260903113904 77 139 2.0 5.0 0.00 0.00 0.00 72 1015.7
20260903113804 77 142 2.0 7.0 0.00 0.00 0.00 72 1015.7
20260903113704 77 141 2.0 7.0 0.00 0.00 0.00 72 1015.6
20260903113604 77 141 2.0 7.0 0.00 0.00 0.00 72 1015.7
20260903113504 77 143 2.0 7.0 0.00 0.00 0.00 72 1015.6
20260903113204 77 146 2.0 7.0 0.00 0.00 0.00 72 1015.7
20260903113104 78 147 2.0 7.0 0.00 0.00 0.00 72 1015.6
20260903113004 78 147 2.0 7.0 0.00 0.00 0.00 71 1015.7
20260903112904 77 148 2.0 7.0 0.00 0.00 0.00 71 1015.7
20260903112804 78 146 2.0 7.0 0.00 0.00 0.00 71 1015.7
20260903112704 78 151 2.0 7.0 0.00 0.00 0.00 71 1015.7
20260903112604 78 149 2.0 7.0 0.00 0.00 0.00 71 1015.7
20260903112504 78 148 2.0 7.0 0.00 0.00 0.00 71 1015.6
20260903112404 78 145 2.0 5.0 0.00 0.00 0.00 71 1015.6
20260903112305 78 145 2.0 5.0 0.00 0.00 0.00 71 1015.7
20260903112204 78 148 2.0 5.0 0.00 0.00 0.00 71 1015.7
20260903112104 78 147 2.0 5.0 0.00 0.00 0.00 71 1015.7
20260903112004 78 144 2.0 5.0 0.00 0.00 0.00 71 1015.7
20260903111904 78 147 2.0 5.0 0.00 0.00 0.00 71 1015.8
20260903111704 78 146 2.0 5.0 0.00 0.00 0.00 71 1015.8
20260903111604 78 148 2.0 5.0 0.00 0.00 0.00 71 1015.8
20260903111504 78 147 2.0 5.0 0.00 0.00 0.00 71 1015.8
20260903111404 78 149 2.0 5.0 0.00 0.00 0.00 71 1015.8
20260903111304 78 149 1.0 5.0 0.00 0.00 0.00 71 1015.8
20260903111205 78 145 2.0 5.0 0.00 0.00 0.00 71 1015.8
20260903111104 78 151 2.0 5.0 0.00 0.00 0.00 71 1015.8
20260903111004 78 155 1.0 5.0 0.00 0.00 0.00 71 1015.7
20260903110905 78 151 2.0 5.0 0.00 0.00 0.00 71 1015.7
20260903110604 78 153 2.0 5.0 0.00 0.00 0.00 71 1015.8
20260903110504 78 155 2.0 5.0 0.00 0.00 0.00 71 1015.8
20260903110404 78 156 2.0 5.0 0.00 0.00 0.00 70 1015.8
20260903110304 78 155 2.0 5.0 0.00 0.00 0.00 70 1015.8
20260903110204 78 156 2.0 5.0 0.00 0.00 0.00 70 1015.8
20260903110104 78 155 2.0 5.0 0.00 0.00 0.00 70 1015.8
20260903110004 78 154 1.0 4.0 0.00 0.00 0.00 70 1015.8
20260903105904 78 153 1.0 4.0 0.00 0.00 0.00 70 1015.8
20260903105704 78 150 2.0 4.0 0.00 0.00 0.00 70 1015.8
20260903105604 78 144 2.0 5.0 0.00 0.00 0.00 70 1015.8
20260903105504 78 143 2.0 5.0 0.00 0.00 0.00 70 1015.8
20260903105404 78 140 2.0 5.0 0.00 0.00 0.00 70 1015.8
20260903105306 78 143 2.0 5.0 0.00 0.00 0.00 70 1015.7
20260903105204 78 143 2.0 5.0 0.00 0.00 0.00 70 1015.8
20260903105004 78 143 2.0 5.0 0.00 0.00 0.00 70 1015.8
20260903104904 78 143 2.0 5.0 0.00 0.00 0.00 69 1015.8
20260903104806 78 145 2.0 6.0 0.00 0.00 0.00 69 1015.9
20260903104604 78 145 2.0 6.0 0.00 0.00 0.00 69 1015.8
20260903104404 78 148 2.0 6.0 0.00 0.00 0.00 69 1015.9
20260903104304 78 148 2.0 6.0 0.00 0.00 0.00 69 1015.9
20260903104204 78 153 2.0 6.0 0.00 0.00 0.00 69 1015.9
20260903104104 78 154 2.0 6.0 0.00 0.00 0.00 69 1015.9
20260903104005 78 154 2.0 6.0 0.00 0.00 0.00 69 1015.9
20260903103904 78 154 2.0 6.0 0.00 0.00 0.00 69 1015.9
20260903103804 78 155 2.0 5.0 0.00 0.00 0.00 69 1015.9
20260903103704 78 152 2.0 5.0 0.00 0.00 0.00 69 1015.9
20260903103604 78 155 2.0 5.0 0.00 0.00 0.00 69 1015.9
20260903103404 78 154 2.0 5.0 0.00 0.00 0.00 68 1015.9
20260903103304 78 151 2.0 5.0 0.00 0.00 0.00 68 1015.9
20260903103204 79 146 2.0 5.0 0.00 0.00 0.00 68 1015.9
20260903103104 79 144 2.0 5.0 0.00 0.00 0.00 68 1016.0
20260903102904 79 147 2.0 5.0 0.00 0.00 0.00 68 1016.0
20260903102804 79 150 2.0 8.0 0.00 0.00 0.00 68 1015.9
20260903102704 79 153 2.0 8.0 0.00 0.00 0.00 68 1016.0
20260903102604 79 151 2.0 8.0 0.00 0.00 0.00 68 1015.9
20260903102404 79 152 2.0 8.0 0.00 0.00 0.00 67 1016.0
20260903102305 79 156 3.0 8.0 0.00 0.00 0.00 67 1016.0
20260903102204 79 155 2.0 8.0 0.00 0.00 0.00 67 1015.9
20260903102104 79 157 2.0 8.0 0.00 0.00 0.00 67 1015.9
20260903101904 79 153 2.0 8.0 0.00 0.00 0.00 67 1015.9
20260903101704 79 155 2.0 7.0 0.00 0.00 0.00 67 1015.9
20260903101604 79 157 2.0 7.0 0.00 0.00 0.00 67 1015.9
20260903101404 79 156 2.0 7.0 0.00 0.00 0.00 67 1015.9
20260903101304 79 153 2.0 6.0 0.00 0.00 0.00 67 1015.9
20260903101204 79 153 2.0 6.0 0.00 0.00 0.00 67 1015.9
20260903101005 79 153 2.0 6.0 0.00 0.00 0.00 66 1015.9
20260903100904 79 158 2.0 6.0 0.00 0.00 0.00 66 1016.0
20260903100805 79 159 2.0 6.0 0.00 0.00 0.00 66 1016.0
20260903100705 79 153 2.0 6.0 0.00 0.00 0.00 66 1015.9
20260903100605 79 153 2.0 7.0 0.00 0.00 0.00 66 1016.0
20260903100505 79 150 2.0 7.0 0.00 0.00 0.00 66 1015.9
20260903100405 79 150 2.0 7.0 0.00 0.00 0.00 66 1016.0
20260903100305 79 150 2.0 7.0 0.00 0.00 0.00 66 1015.9
20260903100104 79 150 2.0 7.0 0.00 0.00 0.00 66 1015.9
20260903095904 80 146 2.0 7.0 0.00 0.00 0.00 66 1015.9
20260903095804 80 152 2.0 7.0 0.00 0.00 0.00 66 1015.9
20260903095704 80 153 2.0 7.0 0.00 0.00 0.00 66 1015.9
20260903095604 80 153 2.0 7.0 0.00 0.00 0.00 66 1015.9
20260903095504 80 156 2.0 7.0 0.00 0.00 0.00 65 1015.9
20260903095404 80 156 2.0 7.0 0.00 0.00 0.00 65 1015.9
20260903095306 80 157 2.0 7.0 0.00 0.00 0.00 65 1015.9
20260903095204 80 158 2.0 7.0 0.00 0.00 0.00 65 1016.0
20260903095104 80 159 2.0 7.0 0.00 0.00 0.00 65 1015.9
20260903095004 80 160 2.0 7.0 0.00 0.00 0.00 65 1015.9
20260903094904 80 158 2.0 7.0 0.00 0.00 0.00 65 1015.9
20260903094804 80 153 2.0 7.0 0.00 0.00 0.00 65 1015.9
20260903094704 80 155 2.0 7.0 0.00 0.00 0.00 65 1015.9
20260903094604 80 155 2.0 7.0 0.00 0.00 0.00 65 1015.8
20260903094504 80 154 2.0 6.0 0.00 0.00 0.00 65 1015.9
20260903094404 80 154 2.0 6.0 0.00 0.00 0.00 65 1015.8
20260903094304 80 155 2.0 6.0 0.00 0.00 0.00 65 1015.8
20260903094204 80 153 2.0 6.0 0.00 0.00 0.00 64 1015.9
20260903094104 80 153 2.0 6.0 0.00 0.00 0.00 64 1015.9
20260903094004 80 159 2.0 7.0 0.00 0.00 0.00 64 1015.9
20260903093904 80 160 2.0 7.0 0.00 0.00 0.00 64 1015.9
20260903093804 80 159 2.0 7.0 0.00 0.00 0.00 64 1016.0
20260903093704 80 158 2.0 7.0 0.00 0.00 0.00 64 1015.9
20260903093604 80 154 2.0 7.0 0.00 0.00 0.00 64 1015.9
20260903093505 80 155 2.0 7.0 0.00 0.00 0.00 64 1015.9
20260903093405 80 154 2.0 7.0 0.00 0.00 0.00 64 1016.0
20260903093305 80 156 2.0 7.0 0.00 0.00 0.00 64 1015.9
20260903093205 80 157 2.0 7.0 0.00 0.00 0.00 64 1015.9
20260903093105 80 157 2.0 7.0 0.00 0.00 0.00 64 1015.9
20260903093005 80 153 2.0 7.0 0.00 0.00 0.00 64 1015.9
20260903092905 80 152 2.0 7.0 0.00 0.00 0.00 64 1015.9
20260903092805 80 153 2.0 7.0 0.00 0.00 0.00 63 1015.8
20260903092705 80 151 2.0 7.0 0.00 0.00 0.00 63 1015.8
20260903092605 80 154 2.0 7.0 0.00 0.00 0.00 63 1015.9
20260903092505 80 152 2.0 7.0 0.00 0.00 0.00 63 1015.8
20260903092405 80 156 2.0 7.0 0.00 0.00 0.00 63 1015.8
20260903092306 80 156 2.0 7.0 0.00 0.00 0.00 63 1015.8
20260903092104 80 158 2.0 7.0 0.00 0.00 0.00 63 1015.8
20260903091904 80 157 2.0 6.0 0.00 0.00 0.00 63 1015.8
20260903091804 80 156 2.0 6.0 0.00 0.00 0.00 63 1015.8
20260903091704 80 156 2.0 6.0 0.00 0.00 0.00 63 1015.8
20260903091604 80 154 2.0 6.0 0.00 0.00 0.00 63 1015.8
20260903091504 80 156 2.0 6.0 0.00 0.00 0.00 63 1015.8
20260903091405 80 153 2.0 5.0 0.00 0.00 0.00 63 1015.7
20260903091305 80 152 2.0 6.0 0.00 0.00 0.00 63 1015.8
20260903091205 80 153 2.0 6.0 0.00 0.00 0.00 63 1015.8
20260903091105 80 150 2.0 6.0 0.00 0.00 0.00 62 1015.8
20260903091005 80 149 2.0 6.0 0.00 0.00 0.00 62 1015.8
20260903090905 80 148 2.0 6.0 0.00 0.00 0.00 62 1015.8
20260903090805 80 148 2.0 6.0 0.00 0.00 0.00 62 1015.8
20260903090705 80 151 2.0 7.0 0.00 0.00 0.00 62 1015.8
20260903090505 80 149 2.0 7.0 0.00 0.00 0.00 62 1015.8
20260903090405 80 148 2.0 7.0 0.00 0.00 0.00 62 1015.8
20260903090305 81 145 2.0 7.0 0.00 0.00 0.00 62 1015.8
20260903090205 81 143 2.0 10.0 0.00 0.00 0.00 62 1015.8
20260903090105 81 145 2.0 10.0 0.00 0.00 0.00 62 1015.8
20260903090005 81 148 2.0 10.0 0.00 0.00 0.00 62 1015.8
20260903085905 80 151 3.0 10.0 0.00 0.00 0.00 62 1015.8
20260903085604 81 149 2.0 10.0 0.00 0.00 0.00 61 1015.8
20260903085504 81 149 2.0 10.0 0.00 0.00 0.00 61 1015.8
20260903085404 81 148 2.0 10.0 0.00 0.00 0.00 61 1015.8
20260903085306 81 152 2.0 10.0 0.00 0.00 0.00 61 1015.8
20260903085204 81 157 2.0 10.0 0.00 0.00 0.00 61 1015.8
20260903085005 81 157 2.0 10.0 0.00 0.00 0.00 61 1015.8
20260903084905 81 156 2.0 10.0 0.00 0.00 0.00 61 1015.8
20260903084805 81 158 2.0 10.0 0.00 0.00 0.00 61 1015.8
20260903084705 81 157 2.0 10.0 0.00 0.00 0.00 61 1015.8
20260903084605 81 155 2.0 10.0 0.00 0.00 0.00 61 1015.8
20260903084404 81 159 2.0 10.0 0.00 0.00 0.00 61 1015.8
20260903084304 81 157 2.0 10.0 0.00 0.00 0.00 61 1015.8
20260903084204 81 151 2.0 10.0 0.00 0.00 0.00 61 1015.7
20260903084104 81 148 2.0 6.0 0.00 0.00 0.00 61 1015.7
20260903084004 81 150 2.0 6.0 0.00 0.00 0.00 61 1015.7
20260903083904 81 151 2.0 5.0 0.00 0.00 0.00 61 1015.7
20260903083804 81 151 2.0 5.0 0.00 0.00 0.00 61 1015.7
20260903083704 81 152 2.0 5.0 0.00 0.00 0.00 61 1015.7
20260903083604 81 157 2.0 5.0 0.00 0.00 0.00 61 1015.7
20260903083504 81 156 2.0 5.0 0.00 0.00 0.00 61 1015.7
20260903083404 81 154 2.0 5.0 0.00 0.00 0.00 61 1015.7
20260903083304 81 152 2.0 5.0 0.00 0.00 0.00 60 1015.7
20260903083205 81 153 2.0 5.0 0.00 0.00 0.00 60 1015.7
20260903083105 81 153 2.0 5.0 0.00 0.00 0.00 60 1015.7
20260903083005 81 153 2.0 5.0 0.00 0.00 0.00 60 1015.7
20260903082905 81 153 2.0 5.0 0.00 0.00 0.00 60 1015.7
20260903082805 81 151 2.0 5.0 0.00 0.00 0.00 60 1015.7
20260903082705 81 151 2.0 7.0 0.00 0.00 0.00 60 1015.7
20260903082605 81 149 2.0 7.0 0.00 0.00 0.00 60 1015.6
20260903082505 81 148 2.0 7.0 0.00 0.00 0.00 60 1015.6
20260903082405 81 152 2.0 7.0 0.00 0.00 0.00 60 1015.7
20260903082204 81 157 2.0 7.0 0.00 0.00 0.00 60 1015.6
20260903082104 81 155 2.0 7.0 0.00 0.00 0.00 60 1015.6
20260903082004 81 153 2.0 7.0 0.00 0.00 0.00 60 1015.6
20260903081904 81 154 2.0 7.0 0.00 0.00 0.00 60 1015.6
20260903081804 81 154 2.0 7.0 0.00 0.00 0.00 60 1015.6
20260903081704 81 154 2.0 6.0 0.00 0.00 0.00 60 1015.6
20260903081505 81 159 2.0 6.0 0.00 0.00 0.00 60 1015.6
20260903081405 81 157 2.0 6.0 0.00 0.00 0.00 60 1015.6
20260903081305 81 158 2.0 6.0 0.00 0.00 0.00 59 1015.6
20260903081205 81 156 2.0 6.0 0.00 0.00 0.00 59 1015.6
20260903081105 81 158 2.0 6.0 0.00 0.00 0.00 59 1015.5
20260903081005 81 159 2.0 6.0 0.00 0.00 0.00 59 1015.6
20260903080804 81 158 2.0 6.0 0.00 0.00 0.00 59 1015.5
20260903080704 81 156 2.0 6.0 0.00 0.00 0.00 59 1015.6
20260903080604 81 156 2.0 6.0 0.00 0.00 0.00 59 1015.5
20260903080504 81 151 2.0 6.0 0.00 0.00 0.00 59 1015.5
20260903080404 81 147 2.0 5.0 0.00 0.00 0.00 59 1015.5
20260903080305 81 146 2.0 5.0 0.00 0.00 0.00 59 1015.5
20260903080204 81 144 2.0 5.0 0.00 0.00 0.00 59 1015.5
20260903080104 81 145 1.0 5.0 0.00 0.00 0.00 59 1015.6
20260903075905 81 143 1.0 5.0 0.00 0.00 0.00 59 1015.5
20260903075805 81 145 1.0 5.0 0.00 0.00 0.00 59 1015.5
20260903075705 81 145 1.0 5.0 0.00 0.00 0.00 59 1015.5
20260903075504 81 145 1.0 5.0 0.00 0.00 0.00 59 1015.5
20260903075404 81 148 1.0 5.0 0.00 0.00 0.00 59 1015.5
20260903075306 81 147 1.0 5.0 0.00 0.00 0.00 59 1015.6
20260903075204 81 148 1.0 5.0 0.00 0.00 0.00 59 1015.6
20260903075104 81 150 2.0 7.0 0.00 0.00 0.00 59 1015.5
20260903075004 81 151 2.0 7.0 0.00 0.00 0.00 59 1015.5
20260903074904 81 153 2.0 7.0 0.00 0.00 0.00 59 1015.5
20260903074804 81 151 1.0 7.0 0.00 0.00 0.00 59 1015.6
20260903074704 81 151 2.0 7.0 0.00 0.00 0.00 59 1015.5
20260903074604 81 153 2.0 7.0 0.00 0.00 0.00 59 1015.5
20260903074505 81 152 2.0 7.0 0.00 0.00 0.00 59 1015.5
20260903074405 81 149 2.0 7.0 0.00 0.00 0.00 59 1015.5
20260903074305 81 152 2.0 7.0 0.00 0.00 0.00 59 1015.5
20260903074205 81 149 2.0 7.0 0.00 0.00 0.00 59 1015.5
20260903074105 81 144 1.0 5.0 0.00 0.00 0.00 58 1015.5
20260903074005 81 144 1.0 5.0 0.00 0.00 0.00 58 1015.5
20260903073905 81 143 2.0 5.0 0.00 0.00 0.00 58 1015.5
20260903073804 81 144 2.0 5.0 0.00 0.00 0.00 58 1015.4
20260903073704 81 143 2.0 5.0 0.00 0.00 0.00 58 1015.5
20260903073604 81 142 2.0 5.0 0.00 0.00 0.00 58 1015.4
20260903073504 81 141 2.0 5.0 0.00 0.00 0.00 58 1015.4
20260903073404 81 142 2.0 5.0 0.00 0.00 0.00 58 1015.5
20260903073304 81 138 1.0 4.0 0.00 0.00 0.00 58 1015.5
20260903073204 81 142 1.0 4.0 0.00 0.00 0.00 58 1015.5
20260903073104 81 144 1.0 4.0 0.00 0.00 0.00 58 1015.4
20260903073004 81 143 1.0 4.0 0.00 0.00 0.00 58 1015.4
20260903072904 81 142 1.0 3.0 0.00 0.00 0.00 58 1015.4
20260903072804 82 139 1.0 3.0 0.00 0.00 0.00 58 1015.4
20260903072704 81 138 1.0 3.0 0.00 0.00 0.00 58 1015.4
20260903072604 81 138 1.0 3.0 0.00 0.00 0.00 58 1015.4
20260903072504 82 138 1.0 3.0 0.00 0.00 0.00 58 1015.4
20260903072404 82 137 1.0 3.0 0.00 0.00 0.00 58 1015.4
20260903072306 82 136 1.0 3.0 0.00 0.00 0.00 58 1015.4
20260903072204 82 136 1.0 4.0 0.00 0.00 0.00 58 1015.4
20260903072104 82 137 1.0 4.0 0.00 0.00 0.00 58 1015.5
20260903072005 82 139 1.0 4.0 0.00 0.00 0.00 58 1015.5
20260903071904 82 140 2.0 4.0 0.00 0.00 0.00 58 1015.4
20260903071805 82 141 2.0 4.0 0.00 0.00 0.00 58 1015.4
20260903071705 82 142 1.0 4.0 0.00 0.00 0.00 58 1015.4
20260903071605 82 142 1.0 4.0 0.00 0.00 0.00 58 1015.5
20260903071505 82 149 2.0 5.0 0.00 0.00 0.00 58 1015.5
20260903071405 82 150 2.0 5.0 0.00 0.00 0.00 58 1015.5
20260903071204 82 154 1.0 5.0 0.00 0.00 0.00 58 1015.5
20260903071004 82 152 1.0 5.0 0.00 0.00 0.00 58 1015.5
20260903070904 82 150 1.0 5.0 0.00 0.00 0.00 58 1015.5
20260903070804 82 149 1.0 5.0 0.00 0.00 0.00 58 1015.5
20260903070704 82 152 1.0 5.0 0.00 0.00 0.00 58 1015.6
20260903070604 82 153 1.0 5.0 0.00 0.00 0.00 58 1015.6
20260903070504 82 148 1.0 4.0 0.00 0.00 0.00 58 1015.6
20260903070404 82 151 1.0 4.0 0.00 0.00 0.00 58 1015.5
20260903070305 82 149 1.0 4.0 0.00 0.00 0.00 58 1015.5
20260903070204 82 148 1.0 4.0 0.00 0.00 0.00 58 1015.5
20260903070105 82 150 1.0 4.0 0.00 0.00 0.00 58 1015.6
20260903070005 82 151 1.0 4.0 0.00 0.00 0.00 58 1015.6
20260903065905 82 153 1.0 4.0 0.00 0.00 0.00 58 1015.5
20260903065805 82 155 1.0 4.0 0.00 0.00 0.00 58 1015.5
20260903065705 82 154 1.0 4.0 0.00 0.00 0.00 58 1015.5
20260903065604 82 153 1.0 4.0 0.00 0.00 0.00 58 1015.5
20260903065505 82 152 1.0 4.0 0.00 0.00 0.00 58 1015.5
20260903065405 82 149 1.0 4.0 0.00 0.00 0.00 58 1015.5
20260903065306 82 152 1.0 4.0 0.00 0.00 0.00 58 1015.5
20260903065204 82 149 1.0 4.0 0.00 0.00 0.00 58 1015.5
20260903065004 82 144 1.0 5.0 0.00 0.00 0.00 58 1015.5
20260903064904 82 140 1.0 5.0 0.00 0.00 0.00 58 1015.5
20260903064804 82 138 1.0 5.0 0.00 0.00 0.00 57 1015.5
20260903064704 82 138 1.0 5.0 0.00 0.00 0.00 57 1015.5
20260903064604 82 138 1.0 5.0 0.00 0.00 0.00 57 1015.5
20260903064504 82 140 1.0 5.0 0.00 0.00 0.00 57 1015.4
20260903064404 82 138 1.0 5.0 0.00 0.00 0.00 57 1015.4
20260903064304 82 135 1.0 5.0 0.00 0.00 0.00 57 1015.4
20260903064204 82 133 2.0 5.0 0.00 0.00 0.00 57 1015.4
20260903064104 82 137 2.0 4.0 0.00 0.00 0.00 57 1015.4
20260903064004 82 137 1.0 4.0 0.00 0.00 0.00 57 1015.4
20260903063704 82 140 2.0 4.0 0.00 0.00 0.00 57 1015.3
20260903063604 82 138 2.0 4.0 0.00 0.00 0.00 57 1015.3
20260903063504 82 137 1.0 4.0 0.00 0.00 0.00 57 1015.3
20260903063305 82 142 2.0 4.0 0.00 0.00 0.00 57 1015.4
20260903063205 82 145 1.0 4.0 0.00 0.00 0.00 57 1015.4
20260903063005 82 142 1.0 4.0 0.00 0.00 0.00 57 1015.4
20260903062904 83 139 1.0 4.0 0.00 0.00 0.00 56 1015.4
20260903062704 83 139 2.0 5.0 0.00 0.00 0.00 56 1015.4
20260903062604 83 139 2.0 5.0 0.00 0.00 0.00 56 1015.4
20260903062504 83 137 2.0 5.0 0.00 0.00 0.00 56 1015.4
20260903062404 83 137 2.0 6.0 0.00 0.00 0.00 56 1015.4
20260903062306 83 136 2.0 6.0 0.00 0.00 0.00 56 1015.4
20260903062104 83 134 2.0 6.0 0.00 0.00 0.00 56 1015.3
20260903062004 83 133 2.0 6.0 0.00 0.00 0.00 56 1015.4
20260903061905 83 134 2.0 6.0 0.00 0.00 0.00 56 1015.3
20260903061805 83 134 2.0 6.0 0.00 0.00 0.00 56 1015.3
20260903061705 83 132 2.0 6.0 0.00 0.00 0.00 56 1015.3
20260903061604 83 132 2.0 6.0 0.00 0.00 0.00 56 1015.4